GFSNGP_sfc_thetae_024.txt.gz
Theta_e
286 287 286 285 284 285 283 283 279 281 282 286 288 288 289 291 292 293 293 294 295 296 296 296 297 297 299 300 300 300 300 302 303 304 306 305 305 304 304 306 307 308 305 304
283 286 286 283 285 285 285 285 284 284 283 289 290 290 290 291 292 292 293 295 296 296 296 296 297 297 298 298 299 300 299 299 303 304 305 304 304 304 304 304 305 305 304 303
277 284 283 279 284 285 285 286 285 280 285 289 289 290 290 291 292 292 293 294 294 295 295 296 296 297 297 298 299 299 299 299 301 304 303 303 304 304 303 303 304 304 303 302
279 281 272 285 289 289 286 287 288 287 289 291 290 292 292 293 292 293 294 293 294 295 295 296 297 297 298 298 298 298 298 298 301 302 301 302 301 302 302 303 302 303 302 301
276 277 281 284 287 286 284 283 289 288 290 290 292 291 290 294 295 295 295 295 295 295 295 296 296 297 297 297 297 297 297 299 301 301 299 300 299 300 301 302 303 303 301 299
280 274 271 283 289 292 290 278 290 289 289 289 290 283 286 293 295 295 297 296 295 295 296 295 296 297 296 296 296 296 297 300 301 300 299 298 298 298 301 303 303 303 300 300
280 277 281 288 290 291 276 279 289 289 290 290 287 289 292 295 295 296 296 294 296 295 294 295 296 297 295 295 294 296 298 300 299 299 298 299 298 296 301 302 302 302 299 300
280 276 274 291 289 282 286 290 291 291 292 291 292 292 293 294 294 294 293 294 295 294 294 295 296 295 294 294 296 296 297 299 298 298 298 299 295 296 301 302 301 301 298 297
282 281 289 291 289 292 292 291 292 291 292 292 291 291 292 292 293 293 293 294 295 294 293 294 295 295 293 295 296 296 295 295 297 297 297 297 295 295 298 301 300 300 297 296
284 286 288 290 292 293 293 292 293 293 293 293 290 291 291 292 292 292 293 293 294 293 292 293 294 295 294 295 296 295 293 294 297 297 296 295 299 298 299 300 300 300 296 295
284 287 289 290 291 293 292 293 293 293 293 291 291 290 290 290 290 290 291 291 292 291 291 292 293 294 294 294 294 294 293 295 295 295 293 296 298 299 300 301 302 300 297 296
282 288 287 289 292 293 291 291 291 290 290 290 289 288 289 288 289 289 289 290 290 290 291 291 291 291 292 293 293 293 293 295 294 293 292 296 297 298 304 303 304 304 303 299
287 292 291 292 293 292 291 290 290 288 288 287 288 289 289 288 289 291 290 290 290 290 291 291 291 291 291 292 294 293 294 294 294 293 294 294 296 297 296 299 304 303 304 303
292 292 289 290 288 290 289 289 290 289 289 289 289 289 289 289 289 289 289 290 291 291 291 291 290 290 292 293 293 293 296 296 294 294 294 294 296 296 297 296 295 297 302 302
291 291 289 289 289 288 289 288 287 287 288 287 288 288 288 287 287 288 289 290 290 290 290 290 290 290 293 293 293 292 294 294 293 293 293 295 297 296 295 294 294 294 296 299
290 289 288 287 286 287 287 286 285 286 286 287 287 287 288 288 288 288 289 289 288 288 290 290 290 292 293 293 292 294 294 293 291 291 295 295 294 293 293 294 293 293 293 294
286 285 285 285 285 286 286 287 286 286 287 286 287 288 288 288 287 287 288 290 289 290 290 291 291 293 293 293 294 293 292 292 293 294 295 295 294 293 293 293 293 293 293 295
288 288 287 287 286 286 286 286 287 286 286 287 288 288 287 286 285 287 290 290 290 290 291 292 293 294 294 296 294 294 292 292 292 292 293 293 293 294 293 293 293 292 293 295
288 287 288 287 287 287 286 286 286 287 287 287 287 286 287 287 287 288 292 291 290 289 291 293 294 293 292 295 295 294 292 292 292 293 293 294 293 293 292 293 293 293 293 292
287 288 288 287 288 287 286 287 287 286 287 287 287 286 286 286 287 288 290 289 290 291 293 293 294 293 293 294 294 294 293 292 291 291 292 292 292 292 293 293 292 292 292 291
286 287 287 287 287 287 287 287 286 285 286 287 287 286 286 287 288 288 288 287 292 294 294 294 294 293 294 294 294 293 293 293 293 292 291 291 291 291 291 291 290 290 290 290
287 287 287 287 286 286 287 287 286 287 286 286 287 287 287 286 287 288 291 290 292 295 293 293 294 295 294 294 292 292 292 291 291 291 290 290 289 289 289 289 289 290 290 290
287 287 287 287 286 286 287 287 286 288 286 286 286 287 286 287 288 286 285 292 293 294 293 293 295 295 294 292 292 291 290 290 290 290 290 289 289 289 289 289 290 290 290 290
287 287 287 288 287 286 285 286 287 287 286 286 287 287 287 287 288 290 291 293 294 293 293 294 294 294 293 291 291 290 290 289 290 290 290 290 289 289 288 288 289 289 289 289
288 288 288 287 286 285 286 287 287 286 286 285 285 286 287 289 287 289 290 290 292 292 292 294 294 294 292 291 290 290 290 290 290 290 289 289 288 288 288 288 288 289 289 289
287 288 288 288 287 287 287 287 286 287 285 282 283 285 285 286 288 289 289 290 290 291 290 291 293 292 291 291 291 291 290 290 290 290 290 289 289 288 288 288 288 289 290 289
288 289 288 287 288 287 288 287 286 286 287 284 283 285 285 285 285 286 288 288 289 289 289 290 290 291 291 291 291 291 291 290 291 290 290 289 289 288 288 288 288 289 290 290

GFSNGP_sfc_thetae_027.txt.gz
Theta_e
284 285 285 284 283 284 281 281 276 280 281 284 286 285 286 289 291 291 292 292 293 294 293 292 294 294 293 295 297 297 297 297 298 297 300 303 302 303 304 304 304 305 306 306
280 284 284 282 284 284 283 283 283 283 281 286 288 289 289 289 290 290 291 292 293 294 294 294 294 293 295 295 296 297 296 296 298 297 297 299 304 304 303 303 303 304 304 305
272 282 281 276 282 283 283 284 283 279 283 288 288 289 289 290 290 291 292 292 293 294 294 294 293 294 294 295 296 295 296 296 296 297 297 301 303 302 302 302 302 302 303 304
273 277 267 281 287 286 285 286 286 286 286 289 289 290 291 292 291 291 292 294 294 294 295 293 294 295 295 296 294 295 295 295 296 296 298 300 297 298 300 301 301 301 302 303
270 270 278 282 285 284 282 281 287 286 287 288 289 289 289 292 293 292 293 294 295 296 296 294 294 295 294 294 295 294 294 295 295 297 298 297 296 297 298 299 300 299 301 302
275 266 265 279 287 289 287 277 287 287 287 287 288 282 286 292 294 294 294 295 295 295 295 294 294 295 293 293 294 293 294 294 296 296 297 296 296 297 298 299 299 300 300 303
277 270 276 285 288 289 273 277 287 288 288 288 286 288 291 293 293 294 294 294 295 295 294 294 295 295 292 292 292 294 295 295 295 295 296 296 296 297 297 297 297 299 300 302
275 270 271 288 286 279 284 288 288 289 289 288 289 290 291 292 292 292 292 293 294 293 293 294 294 295 292 291 294 294 294 294 295 294 295 296 296 297 296 295 295 298 299 300
278 277 285 287 286 289 289 288 288 289 290 290 289 289 290 289 289 290 290 290 291 291 291 292 293 292 291 293 294 294 293 292 292 293 294 295 297 295 294 295 296 298 299 299
280 282 284 287 290 290 291 289 290 291 290 290 288 288 287 287 287 287 288 288 290 289 289 289 291 291 291 292 293 292 291 290 291 292 293 296 296 294 295 297 297 298 299 297
280 284 285 287 288 289 290 290 290 290 288 287 286 286 286 287 287 288 288 289 289 289 289 290 291 290 292 291 291 289 289 290 291 293 294 295 294 293 296 299 300 298 299 297
279 284 283 284 289 291 289 288 287 286 286 287 287 287 287 286 287 288 288 289 289 289 289 290 291 291 291 293 292 290 289 290 290 292 295 294 292 293 299 304 304 304 304 300
285 287 287 289 290 289 286 286 287 287 287 286 287 287 287 287 288 290 288 288 288 289 289 289 290 290 292 292 291 291 290 291 291 293 294 292 293 292 293 301 304 304 303 304
290 287 284 286 284 286 287 287 288 287 287 288 287 288 288 287 288 288 288 289 289 289 290 289 290 290 292 292 292 291 291 294 292 294 293 293 293 293 296 297 296 298 302 303
289 288 285 284 285 286 287 287 286 286 286 287 288 287 287 287 287 288 289 290 290 290 289 290 290 290 293 293 292 292 292 292 293 293 293 293 293 295 297 297 296 297 298 301
287 285 284 284 283 284 284 286 285 285 286 286 286 287 287 288 288 288 289 290 290 288 289 290 290 291 293 293 292 292 292 293 294 292 291 292 294 294 295 295 295 296 296 296
283 282 281 280 282 283 284 286 286 286 285 286 286 287 287 287 287 287 288 290 291 292 292 291 291 293 294 294 293 292 291 291 295 294 294 294 294 294 294 293 293 293 294 296
286 285 284 282 283 285 286 286 286 286 285 286 287 286 286 286 285 286 288 290 290 290 291 293 293 293 294 294 294 291 291 291 293 293 293 293 293 293 293 293 293 293 294 295
286 285 284 285 285 287 286 286 286 286 286 286 286 285 286 287 287 288 289 289 289 288 291 293 295 294 293 295 293 292 290 290 292 293 293 294 293 293 292 292 292 293 293 292
285 285 285 285 288 287 286 286 286 286 286 286 286 286 285 287 288 288 290 288 290 291 293 293 293 292 292 293 294 292 291 290 290 291 292 292 292 292 292 292 292 292 292 292
284 285 284 285 287 287 287 286 286 285 286 285 285 284 285 286 288 288 287 287 290 293 293 294 293 292 293 293 292 291 292 291 291 290 291 290 291 291 291 291 292 291 290 290
284 284 285 287 286 286 287 287 286 286 285 285 285 285 285 286 287 288 289 289 292 295 293 293 293 294 293 293 291 290 290 290 290 290 290 290 290 289 289 290 289 290 289 290
284 285 286 286 286 286 287 286 286 286 284 284 283 284 283 285 287 286 285 290 293 293 293 293 294 294 293 291 290 290 289 289 289 289 289 289 289 289 289 289 289 289 289 290
283 284 287 288 287 286 285 286 287 287 284 284 284 284 283 284 286 288 289 291 293 292 292 294 294 293 292 290 290 289 289 289 289 288 289 289 288 288 288 289 288 289 289 289
284 286 287 286 286 286 286 286 287 287 284 283 283 284 284 285 285 286 287 289 291 291 290 293 294 293 291 290 290 290 290 289 289 288 288 287 288 288 288 288 289 288 289 289
284 286 287 287 287 287 287 287 286 286 286 280 280 283 283 284 284 284 285 287 287 289 289 289 291 291 291 291 290 290 290 290 289 289 289 288 287 287 287 288 289 289 289 289
285 289 288 287 288 288 287 287 286 283 283 282 281 283 283 283 284 284 285 284 285 286 287 288 288 290 290 290 290 291 290 289 291 289 288 288 287 287 287 288 288 290 290 289

GFSNGP_sfc_thetae_030.txt.gz
Theta_e
282 283 283 283 282 283 280 281 276 280 280 284 286 284 286 288 289 290 291 292 292 292 291 291 290 291 291 292 292 294 294 294 295 295 296 296 297 300 300 301 303 303 302 303
278 283 282 281 283 283 283 283 282 282 281 287 286 287 287 288 289 289 290 291 292 293 294 294 294 294 293 292 292 294 293 294 295 295 295 295 296 297 300 303 302 302 301 301
272 280 279 275 280 282 282 283 282 278 283 285 286 287 287 288 288 288 290 291 292 293 294 294 295 296 292 293 293 293 293 294 295 295 294 295 296 300 299 299 298 298 300 301
272 276 268 279 285 285 283 285 285 285 285 287 287 288 289 290 289 290 291 292 293 293 294 295 296 296 294 294 294 294 293 293 294 294 294 295 295 296 295 295 296 297 298 300
269 270 277 280 284 283 281 281 286 285 286 287 288 289 288 291 291 291 291 293 294 294 295 295 295 295 295 294 293 293 293 292 293 294 292 293 293 294 295 295 296 296 298 300
274 266 266 278 285 288 285 276 285 285 285 285 287 280 284 290 291 291 292 293 293 293 293 293 294 295 294 293 293 292 293 292 294 293 292 292 293 293 295 295 296 297 298 299
275 268 275 283 286 287 274 276 285 286 286 286 283 285 288 290 290 291 291 290 290 290 290 290 292 292 291 292 291 293 294 293 293 294 292 292 291 293 294 294 295 296 296 298
274 269 271 287 285 280 282 285 287 287 287 286 287 288 289 288 287 287 287 288 289 288 289 290 290 290 289 289 292 292 292 293 292 291 292 293 291 292 293 294 295 294 294 296
277 277 284 286 285 287 288 287 287 286 287 287 287 285 286 286 286 287 287 288 289 288 288 289 290 291 289 290 292 291 291 290 291 290 291 291 290 290 292 295 293 293 295 296
280 282 284 286 287 288 289 288 289 288 287 286 284 285 285 286 286 286 287 287 288 288 288 288 290 291 291 292 292 291 290 290 289 288 289 290 292 293 294 293 292 294 297 296
280 283 284 285 286 288 289 289 287 286 286 286 285 285 286 285 286 287 287 288 289 289 289 289 290 291 292 292 292 291 290 289 288 289 288 290 291 293 295 294 294 294 298 298
280 284 283 283 286 289 287 285 285 285 285 286 286 286 287 286 286 287 288 289 288 289 289 289 290 290 291 292 291 291 290 289 289 290 291 290 291 294 297 298 299 300 302 300
285 285 285 286 289 286 284 285 286 286 286 285 287 286 287 286 286 289 288 289 288 289 290 291 291 290 291 291 291 291 290 290 290 291 289 290 292 292 291 294 297 303 303 302
287 284 283 286 283 284 285 286 287 286 286 286 286 287 286 286 287 287 287 289 290 290 290 292 291 290 291 292 292 291 291 293 291 291 291 292 293 292 293 292 292 298 302 301
287 286 286 285 284 284 285 285 284 284 285 286 287 286 286 286 286 287 289 290 290 290 291 291 291 291 293 293 292 292 292 291 292 291 292 293 293 292 292 292 296 296 298 301
286 286 284 283 282 282 282 283 282 284 285 285 285 285 286 287 287 288 289 290 289 288 290 291 291 292 293 294 293 292 291 293 293 292 292 292 291 291 293 296 296 296 297 298
284 282 282 281 281 281 281 284 285 285 285 285 285 285 286 286 287 287 289 290 291 291 292 292 291 293 293 292 291 290 291 292 295 294 294 293 294 295 295 295 295 295 296 298
286 284 284 283 282 282 283 284 285 286 285 285 286 285 285 285 285 286 289 290 290 290 291 292 293 292 293 293 291 290 290 293 293 293 293 293 293 294 294 294 293 293 293 294
285 284 284 284 284 283 283 284 286 286 286 286 285 285 284 285 286 287 288 289 289 288 290 293 294 293 291 294 293 290 290 290 293 292 293 293 292 292 293 293 292 292 292 292
284 284 285 284 285 285 285 286 286 285 286 286 284 283 283 285 286 287 288 287 290 291 293 293 293 291 291 292 294 291 290 290 290 292 292 291 291 292 292 292 292 292 292 291
284 284 284 284 284 285 287 286 286 285 286 284 283 282 282 284 286 287 286 286 290 293 294 293 292 291 291 291 291 291 290 289 289 289 290 290 290 291 291 291 291 291 291 291
283 283 283 284 284 285 287 287 286 286 285 283 283 283 282 282 284 286 288 287 291 294 293 292 292 293 292 292 290 290 290 289 289 289 289 289 289 289 290 290 290 290 290 291
283 283 284 284 283 286 287 286 286 286 285 282 281 281 280 281 283 283 283 288 291 291 291 292 295 293 293 290 290 289 289 289 288 288 288 289 289 289 289 289 289 289 289 289
282 283 283 285 285 286 285 286 287 287 286 284 283 283 281 279 281 284 285 289 291 291 290 293 293 294 292 290 290 289 289 288 288 288 288 289 288 288 288 288 288 289 289 289
283 283 284 284 285 286 286 286 286 287 286 283 282 282 283 283 280 282 283 284 288 289 288 291 293 292 291 290 290 290 290 289 288 288 287 287 287 287 288 288 288 288 289 289
282 283 283 285 287 287 287 287 285 286 286 280 280 281 282 282 283 283 282 285 284 286 286 287 288 289 289 290 290 290 290 289 288 287 287 286 287 287 288 289 289 289 289 288
283 287 284 285 288 288 287 286 286 285 283 281 280 282 282 282 282 283 284 282 283 283 284 285 285 287 288 289 289 290 290 289 290 288 287 287 286 286 287 288 289 289 289 288

GFSNGP_sfc_thetae_033.txt.gz
Theta_e
280 281 281 281 281 282 279 278 275 278 278 283 285 286 287 286 288 289 289 290 291 291 292 293 293 294 294 294 295 295 293 292 292 293 293 293 293 295 296 296 297 299 300 300
278 281 281 280 282 282 282 282 281 281 281 287 288 284 286 287 287 287 289 290 291 292 292 292 293 294 295 295 296 296 292 292 292 293 294 293 293 294 294 295 299 300 299 299
271 278 278 275 279 281 281 282 282 278 283 284 284 285 285 286 287 289 290 290 290 290 291 292 293 294 294 295 296 295 294 292 294 293 293 293 294 293 294 295 295 296 296 296
271 275 269 280 283 284 283 283 284 284 285 285 285 287 287 289 289 288 289 289 290 290 291 292 293 293 293 294 294 294 293 294 293 293 293 293 292 292 292 292 293 294 295 295
269 269 276 280 282 282 280 280 285 284 284 285 286 287 286 289 288 288 289 290 290 290 290 290 290 291 291 291 291 291 292 292 293 293 293 292 291 291 291 291 292 293 295 295
274 266 267 278 284 286 284 276 284 284 284 284 285 278 283 287 289 289 289 288 288 288 289 289 289 290 289 289 289 289 290 291 293 293 292 292 292 290 291 291 293 294 293 294
274 268 275 283 285 286 274 276 285 285 285 285 281 283 286 289 287 288 288 288 289 288 288 289 289 290 288 288 288 290 291 291 292 293 292 292 293 291 289 290 291 290 292 294
274 269 271 286 284 280 282 283 286 286 286 285 285 286 286 286 286 286 286 287 288 288 288 289 290 290 289 289 290 291 291 291 291 291 292 292 290 288 289 289 288 290 293 294
278 278 284 285 284 285 286 286 286 286 286 286 284 284 285 285 285 286 286 287 288 288 289 290 291 291 289 290 292 292 292 291 291 290 290 290 288 287 288 289 290 292 293 293
282 282 284 285 286 286 288 287 288 287 285 284 283 284 284 284 285 285 286 287 288 289 288 289 291 291 291 292 292 292 290 291 290 290 288 288 289 289 289 291 291 292 293 292
281 283 284 285 285 286 288 288 285 285 285 285 284 284 284 284 285 286 286 288 289 288 289 289 291 291 292 293 292 290 290 290 290 290 289 288 289 289 290 291 294 294 294 294
281 284 283 282 285 289 287 285 284 284 284 285 285 284 285 284 286 286 287 288 288 289 290 290 291 292 293 293 292 290 289 289 290 290 290 290 290 289 295 296 299 299 299 298
285 285 285 285 286 287 284 284 285 285 285 283 285 285 286 285 286 289 287 288 288 289 291 291 291 292 293 293 292 290 289 290 290 290 289 289 290 290 289 295 297 298 299 303
286 285 283 286 285 284 285 285 286 285 285 285 285 286 286 285 286 286 287 289 290 290 291 291 291 291 292 293 293 292 291 293 291 291 291 291 291 291 293 291 291 292 301 301
285 285 285 285 283 284 285 284 283 283 283 283 285 285 285 284 284 285 288 289 290 290 290 291 291 291 292 293 291 291 291 291 292 292 291 292 292 292 292 291 292 296 298 300
286 285 283 282 282 283 282 282 281 282 283 283 284 285 285 285 285 286 288 289 288 288 290 291 291 292 292 292 291 290 290 294 294 294 294 293 292 291 290 291 294 295 296 297
284 282 280 280 281 281 281 283 283 283 283 284 284 285 285 285 285 286 287 289 289 290 291 291 291 293 292 292 291 290 290 293 295 293 293 294 295 293 295 295 295 296 298 299
288 286 284 283 282 282 282 283 283 283 283 285 285 285 284 283 284 285 286 288 289 290 292 292 293 292 292 292 292 291 291 292 292 291 292 293 293 294 294 293 293 293 294 295
286 284 283 283 283 283 282 282 283 284 285 285 285 283 283 283 284 285 286 286 287 287 290 292 294 292 291 292 293 291 290 290 291 291 291 293 292 292 292 292 292 292 292 292
283 284 284 283 284 283 283 284 284 285 286 286 282 282 280 281 283 285 286 285 287 289 292 293 292 291 291 291 293 291 289 289 289 290 291 291 291 291 291 292 291 291 291 291
283 283 283 283 283 284 284 284 286 285 286 283 280 280 279 282 283 283 284 284 286 291 292 293 291 291 291 291 291 290 290 289 288 288 288 288 289 290 291 291 291 291 291 291
282 282 282 283 282 283 284 284 286 286 285 284 282 282 281 280 281 281 284 284 287 292 291 290 292 293 292 293 290 289 289 289 288 288 288 288 288 288 289 289 290 291 291 291
282 283 283 282 282 283 284 284 286 286 285 285 282 281 279 280 281 279 279 284 287 290 289 290 294 294 293 291 289 289 289 288 288 288 288 288 288 289 289 289 289 290 290 290
282 282 283 283 283 283 282 284 286 287 286 286 285 282 281 278 280 282 282 286 288 288 288 290 292 293 293 290 290 289 288 288 287 287 288 289 288 288 289 288 288 288 289 289
283 282 283 282 282 281 281 286 286 286 286 286 283 282 282 282 280 281 281 282 286 286 285 288 290 291 289 290 290 290 289 289 288 287 287 287 287 287 288 288 288 288 288 289
282 283 284 284 283 282 283 287 285 286 286 283 278 281 281 282 282 282 281 284 282 285 284 285 286 288 288 290 290 289 290 289 287 287 287 286 287 288 288 288 288 288 288 288
282 286 283 282 284 284 285 287 285 285 286 283 280 281 281 281 282 283 283 281 281 281 282 284 284 286 286 288 289 289 289 290 289 287 287 286 286 287 288 288 288 288 288 288

GFSNGP_sfc_thetae_039.txt.gz
Theta_e
280 281 281 281 281 282 281 283 281 285 282 286 287 287 288 289 289 289 290 291 292 292 291 291 292 292 292 292 293 293 292 293 293 294 295 296 297 297 297 297 297 297 297 297
279 281 281 280 283 282 282 283 281 283 283 289 290 288 287 288 288 288 290 291 291 290 290 290 290 290 291 291 291 292 291 291 293 293 293 294 295 295 296 296 296 297 297 297
277 278 279 278 280 283 282 283 284 280 286 287 286 287 288 288 289 289 290 289 288 289 289 289 289 290 290 291 292 292 291 291 292 292 292 293 293 294 294 295 296 297 297 297
277 278 275 285 286 285 284 285 286 286 287 288 288 288 289 290 289 289 288 288 288 288 289 289 290 290 291 292 292 292 292 292 292 292 291 292 293 293 293 294 295 296 296 296
276 274 279 283 283 283 282 284 287 286 288 288 287 288 288 290 289 289 289 288 288 289 289 289 289 291 291 291 292 291 291 291 292 292 292 292 291 291 293 293 293 294 295 295
275 272 273 283 285 287 286 280 287 287 287 286 287 283 287 288 290 289 288 288 288 289 289 289 290 291 290 291 291 290 291 292 293 293 293 291 290 291 292 293 294 295 294 295
277 274 278 284 287 288 279 285 286 287 287 287 286 289 289 290 288 288 288 288 289 289 288 289 290 291 290 290 290 291 292 294 294 294 293 292 292 291 292 293 292 294 293 293
277 274 274 286 285 283 288 286 287 288 288 288 289 289 288 287 286 287 286 287 288 288 288 290 291 291 290 290 292 292 293 293 293 293 293 292 291 291 291 291 290 290 290 291
280 279 287 287 288 290 288 288 288 288 289 289 287 286 286 285 286 286 286 287 288 288 288 290 291 291 289 290 292 292 292 291 292 293 291 291 291 291 290 291 290 290 290 290
281 284 286 288 290 289 288 288 289 290 289 287 285 285 285 285 285 285 286 286 287 287 288 288 290 291 291 292 293 292 291 291 292 292 291 292 291 291 291 290 289 289 289 290
281 285 287 288 288 289 288 289 289 289 287 286 285 285 285 285 285 285 286 287 287 287 288 288 290 290 292 292 293 291 290 291 291 291 290 290 292 292 292 292 292 290 291 291
285 289 287 288 288 288 287 288 289 287 285 286 286 285 285 285 285 285 286 286 287 288 288 289 290 290 291 292 292 291 290 291 291 291 291 291 291 291 295 295 296 296 297 296
288 289 287 287 287 289 288 289 287 286 286 285 286 286 285 285 285 287 286 286 287 287 288 289 289 290 291 292 292 291 290 291 291 292 291 290 291 291 290 294 296 296 297 298
289 288 286 286 288 287 288 287 289 287 286 286 286 286 285 285 285 285 285 286 287 287 288 289 289 290 291 292 291 291 291 294 291 292 292 292 293 291 291 291 290 291 296 298
287 287 289 287 286 286 286 285 285 284 284 284 285 285 284 284 284 285 286 286 287 286 288 288 288 290 291 291 290 291 290 290 291 292 291 293 294 293 292 292 291 292 298 300
288 287 285 284 285 284 284 284 283 283 283 284 284 284 284 284 285 285 285 286 285 285 287 288 289 291 293 291 290 291 290 293 292 291 290 292 294 292 292 292 293 295 294 295
286 285 284 282 283 283 283 284 284 284 284 284 284 284 284 284 284 284 284 285 286 286 288 289 289 292 291 291 291 290 290 290 292 289 290 291 293 293 295 295 294 294 294 296
287 288 287 286 285 283 283 284 284 284 284 284 284 284 283 282 282 283 284 284 285 285 287 289 291 293 291 291 292 290 290 289 289 288 290 290 291 293 293 293 293 293 293 295
287 286 286 286 286 285 284 284 284 284 284 284 284 283 283 283 283 283 284 283 283 283 285 289 292 292 291 291 292 289 289 289 288 289 289 291 291 292 292 292 292 293 293 293
288 287 286 286 285 285 284 284 284 284 285 284 283 283 282 282 283 283 283 282 283 284 288 289 290 291 291 291 292 289 289 288 288 288 289 289 290 291 291 292 292 292 292 292
288 286 286 285 285 285 285 285 284 284 285 284 284 285 281 283 283 283 282 282 284 286 289 288 289 291 292 291 290 289 288 288 287 288 288 288 288 289 290 291 292 292 292 292
286 284 284 284 284 284 284 284 284 285 284 284 285 286 283 283 283 283 284 283 285 288 288 287 288 293 292 292 290 289 288 288 287 288 287 288 288 288 288 288 290 291 291 291
285 285 284 284 283 284 284 284 284 284 284 284 285 286 284 284 284 282 282 285 286 287 287 286 290 293 293 290 290 289 288 287 287 287 287 288 288 288 288 288 288 290 290 290
284 284 284 285 284 283 282 283 284 285 284 285 287 287 284 284 283 284 284 286 287 287 286 287 289 291 291 290 289 289 288 287 287 287 288 289 288 288 288 288 289 290 291 291
284 284 284 283 283 283 283 283 283 284 284 285 286 287 285 284 283 284 284 284 285 285 284 286 288 288 287 288 289 289 288 288 288 288 288 288 288 288 288 289 289 289 290 291
283 284 284 284 285 285 284 283 283 284 284 284 286 286 284 284 284 284 283 285 283 284 283 284 286 286 286 286 288 289 289 289 288 287 287 288 288 288 288 289 289 289 290 290
284 286 284 283 284 284 284 284 283 283 286 285 286 285 284 284 284 285 284 283 283 283 283 283 284 285 286 286 287 288 289 289 289 288 288 287 288 289 289 289 289 289 290 290

GFSNGP_sfc_thetae_042.txt.gz
Theta_e
289 288 286 286 287 288 286 289 286 290 290 293 295 296 296 296 295 295 295 295 296 296 295 294 294 294 295 296 296 296 295 295 295 296 296 296 295 296 297 297 297 297 298 298
286 286 286 285 288 288 288 288 288 289 288 295 296 295 294 294 294 293 294 295 295 294 293 293 293 294 294 295 295 296 295 295 296 296 297 296 295 295 295 295 295 295 295 297
285 284 284 284 288 289 289 290 289 287 293 294 293 293 294 294 294 293 294 294 293 292 292 292 293 294 293 294 295 294 293 294 294 294 295 295 294 294 294 295 295 295 295 296
284 285 282 290 292 290 289 291 292 291 292 295 295 295 295 295 294 294 293 293 292 292 292 293 294 294 294 292 293 293 293 293 295 294 293 294 294 294 294 294 294 294 295 295
283 283 287 291 289 288 286 289 294 292 294 295 294 293 294 295 294 294 294 292 292 293 293 293 293 293 292 292 292 292 291 293 293 293 292 293 293 293 293 294 292 294 295 295
283 280 281 290 289 291 290 286 294 293 293 293 292 288 292 294 294 294 293 292 292 292 293 292 293 293 292 291 290 291 292 292 293 293 294 292 293 293 293 293 293 293 294 295
284 282 286 292 291 291 284 290 294 293 293 292 291 293 295 295 294 293 292 292 292 292 291 292 292 291 290 290 290 293 293 294 294 294 293 293 293 293 293 292 293 293 293 294
284 281 280 292 290 287 295 295 293 294 294 293 294 295 294 293 292 291 290 290 291 291 291 291 291 291 290 290 293 294 294 293 292 293 293 294 293 292 292 292 292 292 291 292
288 288 294 294 295 297 296 294 295 294 295 294 293 293 292 291 290 290 290 290 291 291 290 290 292 291 290 292 293 293 292 292 292 293 293 293 292 292 292 292 291 291 291 290
288 293 293 295 297 297 297 295 296 296 295 295 293 292 291 290 290 289 290 289 291 290 289 289 291 291 291 292 293 291 291 291 292 292 293 293 293 293 293 292 291 291 291 291
291 294 294 295 297 297 297 296 294 294 294 294 292 291 290 289 289 289 289 290 290 289 289 289 290 291 292 292 292 290 291 290 291 292 292 292 293 293 292 294 294 293 293 293
289 295 294 294 296 297 294 294 295 294 293 292 291 290 290 289 289 289 289 289 289 290 289 289 290 291 291 292 291 290 290 290 291 291 291 292 292 292 296 297 297 297 297 297
293 295 295 295 296 295 293 294 295 294 294 292 291 290 289 289 289 289 289 289 288 289 288 289 290 290 291 292 292 291 290 290 291 291 291 291 290 291 291 293 296 297 298 299
297 295 292 294 293 296 294 294 294 293 293 291 290 290 289 288 288 288 288 288 289 289 288 289 290 290 292 292 293 291 291 293 291 291 291 291 292 294 293 292 290 292 300 300
294 295 294 294 294 294 294 293 291 291 291 289 290 289 288 287 287 288 289 289 289 288 289 289 290 290 292 294 292 291 290 290 291 291 290 292 293 294 293 293 294 295 296 298
292 292 293 292 292 292 292 291 290 290 289 289 288 288 288 287 288 289 289 289 287 286 288 289 289 291 294 292 292 292 290 293 292 290 290 289 292 295 295 294 294 294 294 295
292 291 290 290 291 291 291 291 291 290 289 289 288 288 287 287 288 288 288 289 288 288 288 289 289 291 294 292 292 291 290 290 293 289 289 290 293 294 294 294 293 294 294 297
295 293 292 291 290 291 290 290 289 289 288 289 288 287 287 286 286 287 287 288 288 287 289 290 291 292 292 292 293 290 290 290 290 289 289 290 292 293 293 294 294 293 293 295
297 294 293 292 291 290 289 289 288 289 289 288 287 286 287 287 287 288 288 287 286 286 287 290 291 290 292 292 292 291 289 289 289 289 290 291 291 292 293 293 292 293 293 292
296 296 293 293 291 290 289 290 291 289 289 288 287 286 286 287 288 287 287 286 287 287 289 289 290 290 292 292 292 290 288 289 288 288 289 289 289 291 291 292 292 292 291 291
296 295 292 290 291 290 290 291 290 288 288 288 287 286 286 287 288 288 287 286 288 289 290 289 290 290 293 292 292 291 289 288 288 288 288 288 288 288 288 291 291 291 290 290
295 294 292 290 289 289 290 290 289 289 288 287 287 288 287 287 288 288 288 287 289 289 289 288 290 292 292 291 291 290 289 288 288 288 288 288 288 288 288 288 289 289 290 291
293 293 292 290 289 289 290 289 289 289 288 288 287 288 288 288 289 287 286 289 289 289 289 288 290 291 291 291 290 289 288 288 288 288 288 288 288 288 289 289 289 290 290 290
293 293 292 291 290 289 288 289 289 289 289 289 289 289 289 288 289 291 290 288 287 288 287 288 289 289 289 290 290 289 289 289 288 288 289 290 288 289 289 290 290 291 291 292
294 293 291 289 288 288 289 289 289 288 288 289 290 290 289 290 288 290 289 289 287 287 287 287 288 288 288 289 290 289 289 289 289 289 289 289 289 289 289 290 291 291 291 292
294 292 291 291 290 290 290 289 288 289 289 288 290 290 290 290 290 289 289 287 287 286 286 287 287 288 287 288 289 289 289 289 289 289 289 290 290 289 290 290 290 291 291 292
293 291 290 290 290 289 289 290 289 289 289 289 289 290 289 289 289 288 287 287 287 287 286 287 287 287 287 287 288 289 289 289 289 289 289 290 290 290 290 290 291 291 292 292

GFSNGP_sfc_thetae_045.txt.gz
Theta_e
292 292 292 290 290 291 290 291 288 291 291 295 297 297 297 298 297 297 297 298 298 298 298 297 296 296 296 296 297 297 297 296 297 297 298 297 296 296 297 297 296 296 296 297
289 291 289 287 290 291 291 291 291 291 291 298 297 298 297 298 298 296 297 297 297 297 296 295 294 295 295 295 296 297 295 295 297 296 295 294 295 296 296 296 297 296 296 296
287 289 289 287 292 293 293 294 293 289 294 297 296 296 297 297 297 296 296 296 296 296 294 294 294 295 294 295 296 295 294 294 294 294 293 294 294 294 294 294 295 295 295 296
286 289 283 293 298 296 291 292 294 294 295 296 296 298 298 298 297 296 296 296 296 294 294 294 295 295 295 295 295 294 293 293 293 293 293 294 294 293 294 294 294 294 293 295
285 287 291 293 291 291 289 290 296 295 295 296 297 297 297 298 297 296 296 296 295 294 294 294 294 295 294 293 293 292 291 293 293 294 293 293 292 293 294 293 294 293 295 294
289 283 282 291 292 294 293 288 295 295 295 295 296 290 295 297 297 297 297 295 294 294 294 294 294 294 292 292 291 291 292 293 294 294 292 293 293 293 294 294 293 293 293 294
288 286 289 296 294 294 286 290 297 297 296 295 293 295 298 298 297 297 295 294 294 293 293 293 294 293 291 291 290 292 293 294 293 292 293 293 293 294 293 293 293 293 293 294
289 286 283 297 293 289 295 298 298 297 297 296 297 297 297 297 296 295 294 293 293 292 292 293 293 292 291 290 293 293 292 292 292 292 293 293 293 293 294 293 293 293 292 293
292 291 299 298 296 299 299 297 297 297 298 297 296 296 296 295 295 294 293 292 293 292 291 292 293 293 290 291 292 292 292 291 291 292 292 293 293 293 292 292 291 292 292 292
292 294 296 298 300 300 300 298 298 298 297 297 295 296 295 294 294 292 292 291 292 291 290 291 293 292 291 292 292 291 291 291 291 291 292 293 293 293 292 292 291 291 291 291
292 294 296 297 298 298 298 299 298 298 298 296 296 295 295 293 293 292 291 291 292 290 290 290 291 291 291 292 292 291 291 291 291 291 292 291 292 292 293 294 294 292 293 294
290 294 294 294 297 298 297 296 297 296 296 297 296 294 294 293 292 291 291 291 290 290 290 290 290 290 291 292 293 291 290 290 291 291 291 291 291 291 296 298 298 298 298 297
293 296 296 297 298 299 297 297 297 297 296 295 296 294 293 292 292 291 291 290 290 289 290 290 290 290 292 293 293 291 290 291 291 291 290 290 290 290 292 295 300 302 300 299
297 297 294 296 295 297 297 297 297 296 296 295 294 294 292 291 291 290 290 290 290 290 289 290 290 290 292 293 293 292 292 293 290 290 290 290 290 291 295 294 293 294 299 300
297 297 296 296 296 296 296 296 294 293 294 293 293 292 292 290 289 289 291 291 290 289 289 289 289 290 293 294 292 291 291 290 291 291 290 291 292 295 295 294 294 294 295 297
296 297 297 296 295 295 295 294 293 292 293 293 292 291 291 290 289 290 291 290 288 287 288 288 289 291 293 293 292 292 291 292 292 290 290 290 293 294 294 294 294 294 294 294
294 293 294 294 294 294 293 294 293 293 293 292 291 291 290 289 289 289 290 290 289 289 289 289 289 291 293 292 292 291 290 290 293 290 290 290 293 293 294 293 293 293 293 295
297 298 298 297 295 294 293 294 293 292 291 291 291 290 289 288 287 288 289 289 289 289 290 290 290 291 292 292 292 291 290 289 290 289 290 290 292 293 293 292 292 292 292 293
296 297 297 297 296 295 294 293 292 292 292 291 290 289 289 288 288 289 290 288 288 287 288 290 290 292 291 293 292 291 290 289 289 289 289 291 291 291 292 291 290 291 291 290
295 296 297 297 297 295 294 294 293 292 292 291 290 288 287 287 288 289 289 288 289 289 290 290 290 291 292 292 293 290 290 289 289 288 289 288 289 289 290 291 290 290 289 289
295 295 295 296 296 295 294 294 293 291 291 291 289 288 287 288 289 289 288 287 290 290 290 290 290 290 292 292 292 291 290 289 288 288 288 288 288 289 289 289 290 290 290 290
295 294 294 295 295 294 294 293 292 292 291 290 289 289 288 288 289 289 290 288 290 290 290 289 290 291 291 292 291 290 289 289 288 289 288 288 288 288 289 289 289 290 291 291
295 295 294 294 294 294 293 293 292 291 290 289 289 289 288 289 289 288 287 291 290 290 289 289 290 290 291 291 290 290 289 289 288 288 288 288 288 289 289 290 290 291 291 291
295 295 295 296 295 293 291 292 292 291 291 291 290 290 289 289 289 291 291 290 289 288 288 288 289 290 289 290 290 289 289 289 289 289 290 290 289 289 290 290 290 291 291 291
295 295 295 295 293 293 293 292 292 291 291 290 290 291 291 291 289 290 291 290 289 288 288 288 289 289 288 289 289 289 290 289 289 289 290 290 289 289 290 290 291 291 291 291
295 295 296 296 295 295 295 293 292 291 291 290 290 291 292 291 291 290 290 289 289 288 288 288 288 288 288 288 289 289 289 289 289 289 290 290 290 290 290 290 291 291 292 292
295 296 295 295 295 294 293 293 291 290 292 291 290 291 291 290 290 289 288 289 288 288 287 287 288 288 288 287 288 289 288 289 289 289 290 290 290 290 290 290 291 291 292 292

GFSNGP_sfc_thetae_048.txt.gz
Theta_e
291 292 291 290 289 290 287 288 283 287 288 291 292 291 291 292 294 293 294 295 295 294 293 293 292 290 291 292 293 293 293 292 292 293 293 293 293 294 294 295 295 295 295 295
287 292 289 287 289 289 289 290 289 289 288 293 293 293 292 292 294 294 294 294 295 294 294 292 290 290 291 291 292 292 292 292 293 292 292 292 293 293 293 293 294 294 294 295
284 289 289 285 290 291 290 292 290 285 290 293 292 294 293 293 294 294 293 293 293 293 291 290 290 291 290 291 292 292 291 291 291 292 292 292 293 293 293 293 294 293 294 294
283 286 279 290 294 293 292 292 292 292 293 294 293 294 293 295 294 292 293 293 292 291 290 290 291 291 291 291 291 291 290 290 291 292 292 292 292 292 292 293 293 294 294 294
281 282 288 290 290 290 287 287 294 292 293 294 295 294 293 294 294 292 292 293 291 291 290 290 290 291 290 290 290 290 289 289 291 292 291 292 291 291 292 292 293 293 294 292
284 278 277 289 291 294 292 282 295 294 293 293 293 285 289 295 294 293 293 293 291 290 290 289 290 290 289 289 289 289 289 291 292 292 291 291 291 291 292 293 293 294 294 293
283 282 286 294 293 294 281 285 294 294 293 292 289 291 294 296 294 294 293 293 291 290 288 289 290 290 288 288 288 289 291 292 291 292 292 292 292 292 292 292 293 293 293 293
284 281 279 294 291 286 291 294 295 294 294 293 294 295 295 295 294 294 292 291 291 289 288 289 289 289 288 288 290 291 291 291 291 292 292 292 292 292 293 293 291 292 292 292
288 288 295 295 294 297 296 293 293 293 294 295 294 293 294 293 292 292 291 290 290 288 288 288 288 289 287 288 290 291 291 290 291 292 292 292 292 292 291 292 291 291 292 291
288 291 293 294 295 295 295 294 295 295 295 295 293 293 293 293 292 291 290 289 289 289 287 287 288 289 288 290 291 291 290 290 291 291 292 292 292 292 291 291 291 291 291 291
288 291 292 293 294 295 295 296 296 296 295 294 294 293 293 292 291 291 289 289 289 288 287 287 288 288 288 291 291 290 290 290 290 291 291 291 292 292 292 294 297 297 295 294
285 291 289 290 294 295 294 294 294 294 294 294 294 292 292 291 292 290 288 289 288 288 287 287 287 288 289 291 291 290 290 289 290 291 290 291 290 290 295 299 300 301 301 300
290 293 293 294 294 295 293 294 295 294 294 292 294 293 291 290 291 291 288 289 288 287 287 287 287 288 289 291 292 291 289 290 291 291 290 289 289 289 290 296 299 300 301 301
294 293 290 292 292 295 295 294 295 294 294 293 292 292 291 290 290 289 288 288 289 288 287 287 287 287 289 291 292 291 290 293 290 290 290 289 289 293 294 293 293 294 298 299
293 293 292 293 294 294 295 294 292 291 291 291 292 290 290 289 288 288 289 289 289 287 287 287 286 287 290 291 291 290 290 290 290 291 290 291 292 294 294 294 293 293 294 295
292 293 293 292 292 293 293 292 290 290 291 291 290 291 291 289 288 288 288 289 286 285 286 286 286 288 289 291 291 291 290 293 292 290 290 290 292 293 293 293 292 292 291 292
289 289 290 291 291 291 291 292 291 290 290 290 289 290 289 288 287 287 287 288 287 287 287 286 286 288 291 291 291 290 290 290 292 290 289 290 291 291 292 291 291 290 290 294
291 291 292 293 292 291 291 292 291 289 289 289 290 289 287 286 285 286 287 287 286 286 287 287 288 288 290 291 291 290 289 289 289 289 290 289 290 291 291 289 290 289 290 292
293 292 292 293 293 292 291 291 291 290 291 291 290 287 287 286 286 287 287 286 285 284 285 288 290 289 289 292 292 290 289 289 289 289 289 291 289 289 289 289 289 289 290 291
293 293 293 292 293 293 292 291 291 291 291 291 289 287 286 285 286 287 287 285 286 286 287 288 287 287 288 291 292 290 289 289 288 288 289 289 289 288 289 290 290 290 290 291
293 293 292 291 291 293 293 291 290 290 291 291 288 285 284 286 287 287 285 284 286 288 288 289 287 287 289 291 290 289 289 288 288 288 288 288 288 288 288 289 290 290 290 291
291 291 291 291 291 291 292 291 290 290 290 289 288 287 286 286 286 286 287 285 287 291 288 286 286 289 289 291 289 289 289 288 288 288 288 288 288 287 288 289 290 290 291 291
291 291 291 291 290 291 292 291 290 290 289 288 287 287 285 286 286 283 285 288 287 289 286 286 289 291 291 289 289 288 288 288 288 288 288 288 288 288 289 289 290 290 290 291
291 291 291 292 292 291 289 290 290 290 289 289 288 289 286 284 284 287 289 290 291 288 286 286 288 290 289 288 289 289 288 288 288 288 289 290 289 289 289 290 290 291 291 291
291 291 291 290 289 288 290 290 289 289 288 288 288 289 288 288 285 286 288 288 290 287 285 288 289 289 287 288 288 289 288 288 289 288 289 289 289 289 289 290 291 291 291 292
291 290 290 291 290 290 290 291 288 288 288 285 289 289 288 288 287 287 286 288 286 287 284 285 286 286 286 286 287 288 288 288 288 288 289 289 289 289 289 290 290 291 291 292
292 295 291 290 291 291 290 290 288 288 290 288 288 289 288 288 286 287 289 285 285 284 283 284 285 286 286 286 286 288 288 289 289 289 289 288 288 288 288 289 289 290 291 291

GFSNGP_sfc_thetae_051.txt.gz
Theta_e
287 289 288 287 287 287 284 284 280 283 285 287 288 287 288 289 292 291 292 293 292 291 290 290 288 288 288 289 289 290 289 289 289 290 291 291 291 291 292 294 293 294 294 293
283 288 287 285 287 287 287 287 285 286 285 289 290 289 290 290 291 292 292 292 292 292 291 289 288 287 288 288 289 289 289 290 290 290 290 291 291 292 293 293 293 293 292 293
278 286 286 281 287 288 287 288 287 282 286 290 289 291 290 291 291 291 291 291 291 290 289 288 288 289 288 288 288 288 288 289 289 290 290 290 292 292 291 292 292 292 293 293
276 281 275 285 290 290 289 289 290 289 290 291 290 291 291 290 289 289 291 290 290 288 288 288 288 288 288 289 288 288 287 288 289 290 290 291 291 291 291 292 292 292 292 293
275 274 282 286 287 287 285 285 291 289 291 291 292 290 289 292 292 291 290 290 289 288 288 288 288 288 288 287 287 287 287 287 289 290 290 290 290 290 291 291 292 292 293 293
278 272 272 285 288 291 289 278 291 291 290 290 290 284 285 293 293 292 291 291 289 289 289 287 287 288 287 286 286 286 288 289 290 291 290 290 291 291 292 292 292 293 292 293
275 273 280 289 290 291 278 281 292 292 290 290 287 288 291 294 293 292 291 290 289 288 287 287 288 287 286 285 285 288 289 290 291 291 291 291 292 292 292 292 292 292 292 293
277 274 276 291 289 284 287 290 291 290 290 291 291 292 293 293 293 291 289 289 289 287 287 288 288 286 285 284 288 289 289 290 290 291 292 292 291 292 292 292 291 291 291 292
283 282 291 291 290 291 292 290 290 290 292 292 291 292 292 291 290 290 288 288 288 287 286 287 286 286 284 286 288 288 289 290 290 291 291 292 292 291 291 291 291 291 292 292
284 287 288 290 291 292 291 290 292 292 292 292 291 291 291 291 290 289 288 288 288 287 285 285 286 286 286 287 288 289 289 290 290 290 291 292 292 291 291 290 291 294 296 295
284 287 289 289 290 290 292 292 292 292 292 292 291 291 291 290 289 288 287 287 287 286 285 285 286 286 286 287 288 288 290 290 290 290 291 290 291 291 291 294 296 296 296 296
282 287 286 286 290 291 291 291 291 291 291 292 291 290 290 289 288 287 286 287 286 286 285 285 285 285 286 288 289 288 289 289 290 291 290 290 290 289 295 299 300 300 300 299
287 289 289 289 291 292 290 291 292 292 291 290 291 291 289 288 288 290 287 287 286 286 286 285 285 285 287 288 289 290 289 289 290 290 289 289 289 289 292 296 298 298 299 299
290 290 287 288 288 291 292 293 293 291 291 291 290 290 289 288 288 287 286 287 287 287 286 285 285 285 287 288 290 290 290 292 290 290 290 289 289 292 293 292 291 292 296 297
290 290 289 289 290 291 292 291 290 289 289 289 290 289 289 287 286 286 287 288 287 286 286 286 285 285 287 288 290 290 290 289 290 290 290 291 291 292 292 292 291 291 292 294
289 288 288 288 289 290 290 289 288 288 288 288 289 288 288 287 286 286 287 287 285 284 285 285 285 286 287 289 290 291 288 291 292 290 289 290 290 291 290 290 290 289 290 292
285 285 286 287 288 288 289 289 289 288 288 288 288 288 288 286 285 285 286 287 286 285 285 285 285 287 288 290 290 289 288 289 292 289 289 289 290 289 289 289 289 289 290 294
289 288 289 288 289 289 289 290 290 289 287 288 289 288 287 286 284 285 285 286 285 285 285 286 287 287 287 288 291 289 289 289 289 289 289 289 289 289 289 289 288 289 290 292
291 290 290 290 289 289 289 289 289 289 289 289 288 287 287 287 286 286 286 285 285 283 284 286 290 287 286 288 292 288 289 288 288 288 289 290 289 288 288 289 289 290 290 290
290 290 291 290 290 289 289 290 290 289 289 289 288 287 286 286 286 285 285 285 285 284 286 286 286 285 286 288 292 288 288 288 288 288 288 288 288 288 288 290 290 290 290 290
288 290 290 289 288 289 290 290 289 288 289 289 287 286 285 286 287 286 284 283 285 287 287 288 286 285 287 290 289 288 288 288 288 288 288 287 287 288 288 289 289 290 290 290
288 288 288 288 288 288 289 290 289 289 288 288 288 287 286 285 286 285 286 284 285 290 287 285 284 288 289 290 289 288 288 288 287 288 288 288 287 287 288 289 289 290 290 291
287 288 288 288 288 288 289 289 289 289 288 287 286 286 285 285 285 283 282 286 285 288 285 284 288 291 291 287 289 288 288 288 287 287 288 288 288 288 289 289 289 290 290 290
288 288 288 289 289 288 287 288 289 289 288 288 287 287 285 284 285 286 286 290 290 288 286 286 287 290 289 287 288 288 287 287 288 288 289 290 288 288 289 289 289 290 291 290
288 288 288 287 287 287 288 289 288 288 288 287 287 287 287 288 286 285 285 286 290 287 284 287 289 289 285 286 286 288 288 287 288 288 288 288 288 288 288 289 289 291 291 291
288 288 288 289 288 288 287 288 286 286 287 282 285 287 289 288 287 287 285 287 285 287 283 283 284 285 285 286 286 287 288 288 288 288 288 288 288 288 288 288 289 290 290 291
288 292 289 288 289 289 289 288 287 286 288 285 285 289 289 287 286 287 287 284 284 283 282 283 284 285 285 286 285 286 286 286 288 288 288 289 288 287 288 288 288 289 290 290

GFSNGP_sfc_thetae_054.txt.gz
Theta_e
285 287 287 286 286 286 283 282 280 281 283 286 287 285 287 288 291 291 291 292 291 289 288 287 286 287 287 288 288 288 288 288 288 289 289 289 290 290 291 292 292 292 293 293
282 287 286 285 286 287 285 285 284 284 283 288 289 288 289 289 290 290 290 290 290 290 288 288 287 286 287 287 287 288 287 288 289 289 289 289 290 290 291 292 292 292 292 292
278 284 284 279 285 286 286 286 285 281 284 288 288 290 289 289 288 289 289 290 290 290 288 287 287 288 286 286 287 286 286 287 288 288 288 289 290 291 290 290 291 291 292 292
275 280 274 283 288 288 287 288 288 288 288 289 289 291 290 290 289 290 290 290 290 288 287 287 287 287 287 287 286 286 285 286 287 288 288 290 290 290 290 291 291 292 292 292
274 273 280 284 285 285 284 284 289 287 289 290 291 289 287 291 291 291 290 290 288 288 288 287 287 287 286 286 285 286 286 286 288 288 288 290 289 290 291 291 291 292 292 292
276 271 271 282 287 289 288 278 289 290 289 289 289 283 285 291 292 292 292 290 288 288 287 286 287 286 285 285 285 284 286 287 288 288 289 290 290 290 291 292 292 293 293 294
275 272 278 287 290 290 278 279 289 289 289 288 286 287 290 292 292 292 290 290 288 286 286 286 286 285 284 284 284 286 287 288 288 289 290 291 291 291 291 292 292 292 292 293
275 273 275 291 287 284 286 288 289 288 289 289 290 291 292 292 291 291 289 288 287 286 285 286 285 284 283 283 286 287 287 287 288 290 291 291 291 292 292 291 291 291 291 292
282 281 289 289 288 291 290 289 288 288 290 290 290 290 290 290 290 289 287 287 287 286 285 285 285 285 283 285 286 287 287 287 288 290 290 291 291 291 290 291 290 290 291 294
284 286 287 289 290 290 290 289 290 290 290 290 289 290 289 289 289 288 287 286 287 285 284 284 285 285 284 285 286 286 286 287 289 289 291 291 292 291 290 290 291 293 294 294
283 285 287 288 288 289 290 290 290 290 290 290 289 289 289 289 288 287 286 286 286 285 284 284 285 284 284 286 286 286 286 289 289 290 290 290 291 291 292 293 297 294 294 295
283 287 286 285 288 290 290 290 290 289 289 290 290 289 289 288 288 286 286 286 285 285 285 284 284 284 284 286 286 286 288 289 289 290 290 290 290 290 295 298 298 298 299 297
287 287 288 289 290 290 289 290 291 290 289 288 290 289 289 288 288 289 286 286 285 285 285 284 284 284 285 286 286 287 289 289 289 290 290 289 289 289 289 294 297 297 298 298
289 289 286 287 287 289 290 292 292 290 290 289 289 289 288 287 287 286 285 286 286 286 285 284 284 284 286 286 287 288 289 291 289 290 290 289 289 289 291 290 289 290 295 296
288 288 288 288 289 289 290 290 289 288 288 288 289 288 288 287 286 286 286 286 286 285 285 284 284 284 286 287 287 289 288 288 290 290 290 291 290 290 290 289 289 290 291 294
288 288 288 287 287 288 288 288 287 288 288 287 287 287 287 287 286 286 286 287 285 283 284 284 284 285 286 287 287 290 287 290 291 290 289 289 290 289 289 289 289 289 290 291
285 284 285 285 286 286 287 289 288 288 288 287 287 287 287 286 285 285 286 287 286 285 284 284 284 286 287 287 288 288 287 288 291 289 289 289 289 288 288 288 288 289 290 292
288 288 288 288 287 287 287 288 289 288 288 288 288 287 286 284 284 286 287 286 285 284 285 285 285 286 286 286 289 287 287 288 288 288 289 289 289 289 288 288 289 289 290 291
290 289 289 288 288 287 287 287 288 289 289 289 288 286 286 285 286 286 286 285 284 282 284 285 289 286 284 287 292 287 287 288 288 288 289 290 288 288 288 289 289 289 290 290
289 288 289 289 289 288 288 288 288 288 289 288 287 286 285 285 285 285 286 285 285 284 285 285 285 284 285 287 291 287 288 288 287 287 288 288 287 287 288 289 289 289 290 290
287 287 288 288 287 288 288 288 287 288 289 288 286 285 284 285 286 286 285 283 285 286 286 287 285 284 286 289 288 288 287 287 287 287 287 287 287 287 288 288 289 290 289 289
286 286 287 287 286 287 287 287 287 288 288 287 287 286 285 284 285 285 286 284 285 290 286 283 284 287 290 289 287 288 287 288 287 287 287 287 287 287 287 288 289 290 288 289
286 286 287 287 287 287 287 287 288 288 287 287 286 286 285 284 284 282 282 285 285 287 284 283 288 291 290 285 287 287 287 287 288 287 288 287 287 287 287 288 289 290 289 289
286 286 287 288 287 286 285 287 287 288 287 287 287 287 285 282 282 285 286 289 291 289 285 285 287 290 289 285 285 287 287 287 288 288 288 289 287 288 287 288 288 290 290 289
287 287 287 286 286 286 286 287 287 287 287 287 287 286 286 286 286 286 285 285 290 288 283 287 288 289 284 284 285 286 287 288 288 288 288 287 287 287 287 287 288 290 290 290
287 287 287 287 286 286 285 286 283 286 286 284 285 285 287 288 288 287 285 286 284 286 283 283 283 284 284 284 285 285 286 287 287 288 288 288 287 287 287 287 288 289 289 289
287 290 287 287 288 287 287 287 286 286 288 286 286 286 289 289 287 286 287 284 284 283 282 282 283 284 284 285 284 285 285 285 287 287 288 287 288 288 287 287 287 289 289 288

GFSNGP_sfc_thetae_057.txt.gz
Theta_e
283 285 285 284 285 285 282 281 279 281 282 284 284 285 286 287 289 289 290 290 289 289 288 287 286 286 286 287 287 287 287 287 287 288 288 288 288 289 289 290 290 291 292 292
281 286 285 284 286 285 285 283 282 282 282 285 287 286 288 287 288 288 289 290 290 290 289 287 286 286 286 286 287 286 286 286 287 288 288 288 288 289 289 290 291 291 291 292
278 282 283 280 283 285 284 284 284 281 283 286 286 288 288 288 288 289 289 290 290 290 288 287 286 287 286 286 286 285 285 286 286 287 287 288 288 289 290 290 291 291 291 292
275 279 274 281 286 287 286 286 287 287 287 288 288 289 290 290 288 289 290 290 289 288 287 287 287 286 286 286 285 285 285 285 286 286 287 288 288 288 290 291 290 291 292 292
274 273 279 282 285 285 284 284 289 286 288 288 290 288 287 290 290 290 290 290 289 287 287 286 286 286 285 285 285 284 285 285 286 287 287 287 287 289 290 291 291 291 292 293
276 270 270 280 286 288 287 278 288 288 287 287 287 280 283 290 291 292 292 291 288 287 286 285 286 285 284 284 283 283 285 286 287 287 287 287 288 290 291 291 292 293 293 293
274 271 278 285 288 288 278 279 288 288 287 286 285 286 289 291 291 292 291 289 287 285 285 285 285 284 283 283 282 284 286 287 287 287 287 289 290 291 291 292 292 292 292 293
274 273 274 289 286 283 285 287 288 287 287 287 288 289 290 290 290 290 289 288 286 285 285 285 284 283 283 281 284 285 286 286 286 287 289 290 290 292 292 291 291 291 291 293
280 280 287 287 287 289 289 288 286 286 288 288 288 288 289 289 289 289 288 287 286 285 284 284 284 284 282 283 284 285 285 285 286 289 290 291 290 291 290 291 290 291 293 292
283 285 286 287 288 289 289 288 289 288 289 289 287 288 288 288 288 287 287 286 286 285 284 283 284 284 283 283 285 285 284 285 288 289 290 290 291 292 291 290 291 293 292 292
282 284 285 286 287 288 289 289 289 289 289 288 288 288 288 287 288 287 286 286 285 284 284 284 284 284 284 284 285 284 284 285 288 289 289 289 291 291 291 292 295 293 293 294
282 286 285 285 288 290 289 288 288 288 288 289 288 288 288 287 287 286 285 285 284 284 284 284 284 283 284 285 285 284 285 287 288 289 289 290 290 290 294 296 297 297 297 296
287 286 287 287 290 289 288 288 289 289 288 287 288 288 287 287 287 288 287 285 284 284 285 284 283 283 284 285 285 285 286 288 288 288 289 289 289 289 288 292 295 296 297 297
287 288 285 287 287 289 289 290 291 289 289 289 288 288 287 287 287 286 285 285 285 285 285 284 283 283 285 285 285 285 288 290 288 289 289 289 289 289 290 289 288 289 294 296
287 287 286 288 288 288 289 289 288 288 288 288 288 287 287 286 286 286 286 286 286 285 285 284 283 283 285 286 285 287 288 287 289 290 289 290 290 290 290 289 289 289 291 293
286 286 286 287 287 288 287 287 286 287 288 288 287 287 287 286 286 285 285 285 284 284 285 284 283 284 286 285 285 288 287 290 290 289 289 289 289 289 288 288 288 289 289 289
284 283 284 285 286 286 286 287 287 287 287 287 287 287 286 286 285 284 285 286 287 286 285 283 284 285 286 286 285 289 286 288 290 288 288 289 289 288 288 288 288 289 289 291
288 288 287 286 286 286 286 286 287 287 287 288 288 287 286 285 284 284 285 285 285 286 285 284 285 286 285 285 286 287 287 287 288 287 288 288 288 289 288 288 288 288 289 289
289 289 288 287 287 286 285 286 286 287 288 288 287 286 286 286 285 285 285 284 284 283 284 285 289 286 283 285 290 286 287 287 287 287 288 290 288 288 288 288 288 289 289 288
288 288 289 288 288 287 287 287 286 286 287 287 287 286 285 285 285 284 284 283 285 285 285 285 285 283 283 285 290 286 287 287 287 287 288 288 287 287 288 289 289 289 288 287
285 286 286 286 286 287 287 286 286 286 287 287 286 285 284 285 285 284 283 282 286 285 286 288 284 283 285 288 286 288 287 287 287 286 287 287 287 287 287 288 289 289 288 288
285 286 286 286 285 285 286 286 286 286 287 287 287 286 285 285 284 284 284 283 285 289 286 283 282 286 289 289 285 287 287 287 287 287 287 287 286 286 286 287 288 289 289 288
285 285 286 286 286 286 286 286 286 286 286 286 286 286 284 284 283 281 281 285 286 287 284 283 287 291 291 284 285 286 286 286 287 287 287 287 287 287 286 287 288 289 289 288
285 286 286 287 286 285 285 286 286 287 286 287 287 287 285 283 282 284 284 289 290 289 285 284 286 290 289 283 284 285 287 287 287 287 288 288 287 287 287 287 287 289 289 289
286 286 286 285 285 284 285 285 285 285 285 286 286 286 286 285 283 284 284 285 290 287 284 287 288 288 283 283 283 284 285 286 288 288 287 288 287 286 286 286 287 289 288 288
285 286 286 286 284 284 283 285 280 284 285 284 286 286 286 288 287 288 286 286 284 287 283 283 283 283 283 283 284 284 284 285 286 287 287 288 287 287 286 286 287 288 287 288
286 289 286 286 286 286 286 287 288 286 286 285 285 287 286 289 288 288 287 284 283 283 282 282 282 284 283 283 283 284 284 284 285 285 286 286 287 288 287 286 286 287 288 288

GFSNGP_sfc_thetae_060.txt.gz
Theta_e
282 283 283 283 284 283 281 280 279 280 281 282 283 284 285 286 288 288 289 290 290 289 289 287 285 285 286 286 286 286 286 285 285 286 286 286 287 288 288 288 289 289 290 292
279 284 284 283 285 284 283 282 281 281 281 285 285 286 286 286 288 288 288 289 290 290 289 288 286 285 286 285 286 285 284 285 286 286 286 287 287 287 288 288 289 291 291 291
278 281 282 280 282 284 283 283 283 280 283 286 285 287 287 287 288 288 288 289 289 289 289 287 286 286 285 285 285 284 284 285 285 286 286 286 287 287 287 287 290 291 291 292
275 278 274 281 285 285 284 285 285 285 286 287 287 288 289 288 287 287 289 289 289 289 287 286 286 286 285 285 284 284 283 284 284 285 285 286 286 286 287 289 290 291 291 292
274 272 278 280 283 284 282 283 287 286 287 287 288 286 286 289 289 289 289 289 289 288 286 285 285 285 284 284 283 283 283 283 284 285 285 286 286 288 289 290 290 291 292 293
275 270 270 279 284 287 286 279 288 288 286 285 286 279 282 288 290 290 291 290 289 287 286 284 285 284 283 283 282 282 283 285 285 286 286 286 288 289 290 291 292 293 293 293
275 271 278 283 286 288 278 280 288 287 285 285 283 285 288 290 290 290 289 289 287 285 284 284 284 283 283 282 281 283 284 285 285 286 286 288 289 290 291 291 292 292 292 293
274 272 274 287 286 283 285 286 287 286 286 286 287 288 289 289 289 289 288 288 286 285 284 284 284 283 282 281 283 284 284 285 285 285 288 290 290 290 290 291 291 291 291 292
279 279 285 287 285 287 287 287 286 286 286 287 287 287 288 287 287 287 287 286 286 284 284 284 283 283 281 282 283 284 284 284 285 286 289 290 290 290 290 291 290 290 291 292
282 284 285 286 287 288 288 287 288 287 287 287 286 287 286 287 287 287 287 286 285 284 283 283 284 284 283 283 283 283 283 283 285 288 289 289 290 291 290 290 290 290 292 291
282 283 284 285 287 288 288 289 288 288 287 287 287 287 286 286 286 287 286 285 285 284 283 283 284 283 283 283 284 283 283 285 287 287 288 289 290 291 291 292 294 292 292 293
281 285 285 284 287 289 288 287 288 287 287 287 287 287 287 286 286 286 286 285 284 284 283 283 283 283 283 284 284 283 282 286 287 287 288 289 289 289 294 295 296 296 296 296
286 285 286 286 288 289 288 289 290 289 289 287 288 287 286 286 286 289 288 285 284 284 284 284 283 283 284 284 284 283 283 287 288 288 288 288 289 288 287 291 295 295 296 296
286 287 285 286 286 289 289 290 292 290 289 288 288 288 287 286 286 286 285 285 285 284 284 284 283 283 284 284 284 284 285 290 286 288 289 289 289 289 289 288 287 289 293 295
286 286 286 287 287 288 288 289 287 287 287 287 288 287 287 286 285 286 286 285 285 284 284 285 283 284 284 285 284 284 286 287 287 289 289 290 289 289 289 289 288 289 290 292
286 286 286 286 286 286 285 286 285 286 286 286 287 287 287 286 286 285 285 285 283 283 284 285 283 284 285 285 283 284 287 289 289 288 288 288 289 288 288 288 288 288 288 288
284 282 282 283 285 285 285 286 285 285 286 286 286 286 286 286 285 284 285 285 285 284 284 284 283 285 285 285 283 287 287 286 290 288 287 288 288 288 288 288 288 288 289 289
286 286 286 285 285 284 285 286 286 286 285 286 286 286 285 285 284 284 285 284 284 284 284 284 284 285 284 284 284 288 284 286 287 287 287 288 288 288 288 288 288 288 287 288
287 287 287 287 287 286 285 285 285 286 286 286 286 285 286 285 285 285 284 283 283 282 283 284 288 286 282 284 290 284 287 286 287 287 287 289 288 288 288 288 288 287 287 287
287 287 288 287 286 285 286 286 285 285 286 286 286 285 285 285 285 285 284 283 283 284 284 284 285 283 282 284 290 286 287 286 286 287 287 287 287 287 287 288 288 288 287 288
285 285 284 285 285 286 285 285 285 285 286 286 285 285 284 285 285 284 282 282 284 285 285 288 284 283 283 289 285 286 287 286 286 287 286 286 286 286 286 287 288 288 288 288
284 285 285 285 285 285 286 286 285 285 285 285 286 285 285 284 284 284 284 283 284 289 286 284 283 286 288 288 283 286 286 286 286 287 286 286 286 285 286 287 287 288 288 288
284 285 285 285 285 285 285 285 285 285 285 285 285 285 284 284 283 281 282 285 284 287 285 283 287 291 290 283 283 284 287 286 286 287 287 286 286 286 286 286 287 287 287 287
284 285 285 286 285 284 284 286 285 285 285 286 286 286 284 284 284 284 283 288 289 289 285 284 286 290 288 282 282 283 284 285 286 287 287 288 286 286 286 286 286 287 287 286
284 284 285 284 284 282 283 283 284 283 284 285 285 286 286 285 283 285 284 285 290 288 284 288 288 288 282 282 283 283 283 285 286 287 286 286 286 286 286 286 286 287 286 287
284 285 285 285 283 283 281 284 280 281 284 285 285 285 286 286 285 288 287 287 285 287 283 283 282 283 282 282 283 283 283 284 285 285 286 286 286 287 286 285 285 286 287 287
285 288 285 285 285 285 285 285 285 284 288 287 287 289 290 289 289 288 287 286 285 284 282 282 282 284 283 283 282 282 283 284 285 285 285 285 286 286 287 288 286 285 285 286

GFSNGP_sfc_thetae_063.txt.gz
Theta_e
285 286 286 286 286 284 284 284 284 285 283 287 288 289 291 291 292 293 294 294 294 295 295 295 294 292 291 291 291 291 291 291 291 291 291 291 291 291 291 291 292 292 292 293
284 286 286 285 286 286 285 285 284 284 285 288 290 291 291 292 292 292 292 293 293 294 295 294 294 292 291 291 291 290 290 289 290 290 290 290 290 290 291 291 292 292 292 293
284 283 284 283 285 286 287 286 287 284 288 290 289 290 291 292 291 291 292 292 293 293 293 293 291 291 290 290 290 289 289 289 289 289 289 289 290 290 290 291 291 292 292 293
282 282 278 286 289 289 287 288 288 288 289 290 291 292 292 292 292 292 292 292 293 293 294 292 290 290 290 289 289 288 288 288 288 288 288 289 289 289 290 291 291 292 292 293
281 279 281 283 286 287 286 286 290 289 290 291 291 290 290 293 293 292 292 293 293 293 291 290 289 289 289 289 288 288 287 287 288 288 288 288 289 289 290 290 291 292 293 293
279 276 275 283 287 290 290 283 289 290 290 289 289 286 288 291 292 293 293 293 292 292 290 289 289 288 288 288 287 287 287 287 288 288 288 288 289 289 290 291 291 292 292 294
279 278 281 285 289 290 283 285 290 290 290 289 288 290 291 292 292 292 292 292 292 289 289 289 288 287 287 287 287 288 288 288 288 289 288 289 290 291 291 291 291 292 292 293
278 277 277 289 288 286 289 290 290 290 290 290 290 290 291 291 291 291 291 291 290 289 289 289 288 287 287 286 288 287 287 287 287 288 289 289 290 291 291 290 290 290 291 291
282 283 287 289 290 291 290 290 290 290 291 290 289 289 289 289 290 290 290 290 289 288 288 289 288 287 286 288 287 287 287 287 287 288 289 290 289 289 290 290 290 290 290 291
285 286 286 289 290 291 291 290 291 291 291 291 289 289 289 289 289 289 290 290 289 288 288 288 288 288 288 287 287 287 286 286 287 288 289 289 290 290 290 290 289 290 291 291
284 286 287 288 289 290 290 291 291 291 291 291 290 289 289 289 289 289 290 290 289 288 287 287 288 288 288 287 287 287 286 286 287 288 288 288 289 290 291 291 293 292 292 292
284 287 288 288 289 290 290 290 290 290 290 291 290 289 289 289 289 289 289 290 289 288 287 288 287 287 287 287 287 287 286 286 287 289 289 289 289 289 294 295 296 296 296 295
289 288 288 289 290 290 289 290 291 291 291 290 291 290 289 289 289 292 290 289 289 288 288 287 287 287 288 287 287 287 286 286 288 287 287 288 288 288 287 291 294 294 295 295
288 288 287 288 289 290 291 291 293 292 291 290 290 290 289 289 289 289 289 289 289 288 287 287 287 287 288 287 287 287 287 289 287 287 288 288 288 288 289 288 287 288 293 293
287 288 288 289 289 289 290 290 290 289 289 289 289 289 289 288 289 289 290 289 288 287 287 287 287 287 288 288 287 286 287 287 288 289 289 289 289 289 289 289 288 289 289 291
287 287 287 288 288 288 289 289 288 288 288 288 288 288 289 289 288 288 289 288 286 287 287 287 287 288 287 288 287 287 288 289 289 289 288 288 288 288 288 288 288 288 287 288
285 285 285 286 287 287 287 287 287 287 287 287 288 288 288 288 287 288 289 288 287 287 287 287 287 287 287 288 286 287 289 287 289 288 288 287 288 288 288 288 288 288 288 289
287 288 288 288 287 286 286 287 287 287 286 287 287 287 287 287 287 288 288 288 287 286 287 288 287 287 288 286 287 289 287 287 287 287 288 287 288 288 288 288 288 288 288 289
288 288 288 288 287 287 287 287 287 287 287 287 286 287 287 287 287 287 287 286 286 285 287 287 288 289 287 286 291 288 287 286 287 287 287 289 287 287 287 287 288 288 287 288
288 288 289 289 288 287 287 287 286 286 287 287 287 286 286 287 287 287 287 286 287 287 287 287 287 287 286 286 291 287 287 286 286 287 287 287 286 286 286 288 288 288 288 288
287 287 286 286 287 287 287 286 286 286 287 287 286 286 286 287 287 287 286 286 288 288 288 288 288 287 287 289 287 287 287 286 286 287 287 286 286 286 286 286 287 287 287 287
285 286 286 286 286 286 287 287 286 286 286 286 287 287 286 287 287 287 287 287 288 289 288 288 287 287 290 288 286 287 287 287 287 287 286 287 286 285 285 286 286 286 287 286
285 286 286 286 286 286 286 286 287 286 286 286 286 286 286 287 287 286 287 288 287 287 288 287 288 291 290 286 285 285 286 286 286 287 287 287 286 286 285 285 286 287 286 287
285 285 285 286 286 285 285 287 286 287 287 287 287 287 286 286 288 287 287 289 290 290 288 288 288 290 288 285 285 285 285 286 286 286 287 287 286 287 286 286 285 287 287 287
284 285 285 285 285 285 285 286 286 286 286 286 287 287 287 287 287 288 288 287 290 290 288 289 289 288 285 285 285 285 285 285 286 286 286 286 286 286 287 286 286 286 286 286
284 285 285 285 284 285 284 285 284 285 285 286 288 289 290 290 289 289 288 288 288 289 286 285 285 285 285 285 285 284 285 285 285 285 285 285 286 286 286 287 286 287 287 287
285 288 285 285 286 286 286 286 286 286 286 286 287 289 290 292 291 290 288 287 287 287 285 285 285 286 285 285 284 284 284 285 285 285 285 285 285 286 286 286 287 287 287 287

GFSNGP_sfc_thetae_066.txt.gz
Theta_e
290 290 291 291 291 290 290 293 289 291 290 293 295 296 297 298 298 298 298 299 299 299 300 300 301 301 300 298 298 297 297 296 296 296 295 295 294 294 294 294 295 296 296 296
289 290 290 289 292 291 291 291 290 291 291 297 296 297 296 297 297 297 297 298 298 298 298 299 299 299 298 297 297 297 296 295 295 294 294 294 293 293 294 294 295 296 295 295
290 289 290 289 292 292 292 293 293 290 294 295 294 295 296 297 297 296 296 296 297 297 298 298 298 296 296 296 297 296 295 294 293 293 293 293 293 293 293 294 295 293 293 293
292 289 283 289 293 293 293 293 294 293 293 295 295 296 298 298 297 296 296 296 297 297 298 299 296 296 296 296 295 294 293 293 293 292 292 292 292 293 293 294 293 292 293 294
289 287 290 289 289 290 290 291 295 294 294 295 296 296 296 297 296 296 296 297 297 298 298 297 295 295 295 295 295 293 293 292 292 292 291 292 292 292 294 293 293 293 294 294
288 287 285 288 292 294 295 288 295 296 295 295 295 291 295 296 296 296 297 297 297 297 296 295 295 295 294 294 293 292 292 291 292 292 291 291 292 292 292 292 293 292 292 294
288 287 289 293 294 295 286 290 296 297 297 295 293 295 295 296 295 296 296 297 297 296 295 295 296 295 293 293 292 293 292 292 292 292 291 292 292 291 291 291 292 292 292 294
287 286 284 294 292 291 295 296 297 296 296 295 295 294 294 294 294 295 295 296 297 295 295 296 295 294 293 292 294 293 292 292 292 291 291 292 291 290 291 291 291 291 291 291
291 292 293 296 295 296 297 297 296 296 296 294 293 293 293 294 294 295 295 296 296 295 295 296 296 294 292 293 293 292 291 292 291 291 292 292 290 290 291 291 290 290 290 291
291 294 293 295 297 296 296 297 297 296 295 294 292 293 293 294 295 295 295 295 296 295 295 295 295 294 293 293 293 291 291 291 290 290 291 291 291 292 291 290 289 290 291 291
292 294 293 295 296 297 296 296 295 295 295 294 294 293 294 294 295 295 295 296 296 295 294 294 295 294 294 293 292 291 290 290 290 290 289 289 291 291 291 292 293 292 292 292
291 295 296 295 297 297 295 294 295 294 294 295 295 294 295 295 296 296 296 296 295 295 295 295 294 293 293 293 292 291 290 289 290 289 288 289 290 290 293 294 295 295 295 295
296 295 294 294 296 297 295 295 295 295 295 294 296 296 295 295 296 296 296 296 295 295 295 294 293 293 293 293 291 291 289 289 289 288 289 289 289 288 287 291 294 294 294 295
295 295 293 294 294 296 295 295 296 296 296 296 296 296 295 295 295 295 295 296 295 295 294 294 293 293 293 292 291 291 290 290 288 289 290 289 289 288 289 288 288 289 293 293
295 294 295 296 296 295 296 295 294 294 295 294 295 294 294 294 294 294 295 295 295 294 294 293 292 292 293 292 291 290 290 289 289 290 291 290 289 288 289 289 288 289 291 292
294 293 294 295 295 295 295 294 293 293 294 294 294 294 294 294 294 295 295 295 293 293 294 293 292 293 292 292 291 290 290 290 289 290 289 289 288 288 288 289 289 288 290 290
291 290 292 293 293 294 294 294 293 293 293 293 293 294 293 294 294 295 295 295 295 294 294 293 292 293 291 292 290 291 289 289 289 288 289 289 288 288 287 288 288 289 289 290
295 296 296 296 294 294 293 293 293 294 293 293 293 293 293 293 293 293 294 294 294 294 294 294 293 292 292 291 291 290 290 288 287 288 289 288 288 288 287 287 288 288 288 289
294 294 295 294 294 293 294 294 293 293 293 293 292 292 293 293 293 293 294 293 293 293 295 293 290 291 291 290 291 291 289 287 287 288 288 289 287 287 287 287 288 288 288 287
294 294 294 294 294 294 293 293 293 293 294 293 293 292 292 293 293 293 294 293 294 294 294 292 291 292 291 291 291 290 289 287 286 288 288 288 288 287 286 287 287 287 288 288
294 294 294 292 292 292 293 293 293 293 293 293 292 291 291 293 293 293 293 293 296 294 292 290 292 292 292 291 290 289 288 287 287 288 287 287 286 287 286 286 286 288 287 287
292 292 292 292 292 293 294 294 293 293 292 292 292 293 292 293 293 293 295 293 295 291 292 293 292 291 292 289 289 289 288 287 287 287 287 287 286 287 286 286 286 287 287 287
292 292 292 292 292 293 293 293 293 292 292 291 291 291 291 291 292 291 291 295 294 291 291 292 290 291 290 289 289 288 288 287 287 287 287 287 287 287 287 286 287 287 287 287
292 291 291 292 292 292 292 293 292 293 292 291 291 292 291 290 291 294 294 293 291 291 292 292 291 290 288 289 288 288 288 287 287 287 287 287 287 287 286 287 286 287 287 287
291 291 291 291 292 293 292 292 292 292 291 292 292 292 292 292 289 291 292 293 291 292 292 290 289 288 289 288 288 287 287 287 287 287 287 287 286 287 287 286 287 287 287 287
292 292 293 292 293 293 293 293 293 293 292 291 291 292 292 293 292 292 290 290 291 291 290 290 289 289 288 288 287 287 287 287 286 286 286 286 287 286 286 287 287 287 287 288
291 290 292 293 293 293 293 293 292 290 290 290 290 291 291 292 292 292 289 289 290 289 289 289 289 288 288 287 286 286 287 286 285 286 286 287 287 287 287 287 287 287 288 288

GFSNGP_sfc_thetae_069.txt.gz
Theta_e
293 293 293 293 293 293 292 294 291 294 292 296 297 298 299 300 300 300 300 300 300 300 300 300 300 301 301 301 301 300 299 299 299 299 298 296 296 296 295 295 295 295 295 296
291 293 293 291 294 294 294 294 294 294 293 300 301 300 299 299 299 299 299 299 299 299 298 299 299 300 300 300 299 299 299 298 298 296 295 295 295 294 294 294 295 295 295 295
291 293 293 291 295 296 296 296 295 291 295 298 296 297 298 299 299 298 298 298 297 297 298 298 299 299 298 299 299 298 297 296 295 295 294 294 294 293 294 294 294 294 294 293
293 293 285 292 296 296 295 295 297 296 296 297 298 299 300 301 299 298 297 297 297 297 298 299 299 299 299 298 298 297 295 295 295 294 293 293 293 293 293 293 294 293 293 293
291 290 293 291 292 293 292 292 298 297 297 298 298 299 298 300 298 297 296 297 297 298 298 298 298 298 297 297 297 295 294 294 294 293 292 292 292 292 293 293 291 292 293 293
291 290 285 291 294 297 296 289 297 298 298 297 298 292 294 298 297 296 297 297 297 298 298 298 298 298 297 296 295 294 295 294 293 293 293 292 292 292 293 292 291 292 292 293
290 289 291 295 296 298 287 291 298 299 299 299 296 297 297 296 296 297 297 297 298 298 297 298 298 297 295 295 294 295 295 294 293 293 293 292 292 293 293 291 291 291 292 293
291 288 286 297 295 291 297 299 299 299 299 298 298 296 295 295 295 296 296 296 297 297 297 298 298 297 295 294 295 295 294 293 293 293 292 292 292 293 291 291 292 291 291 291
293 294 297 299 299 300 300 298 299 299 299 298 295 294 294 294 295 295 296 296 297 297 297 297 298 297 295 295 295 294 293 293 293 292 292 292 291 291 291 292 291 290 290 290
294 296 297 298 300 299 299 299 300 300 298 296 294 294 294 294 295 295 296 296 297 297 296 296 297 297 297 296 295 294 292 292 292 291 291 292 291 291 292 290 290 290 290 290
294 297 297 298 299 300 299 299 298 298 297 295 295 294 294 294 295 296 296 297 297 296 296 296 297 297 297 296 295 293 292 292 291 291 290 290 290 291 291 292 292 291 291 291
292 298 298 298 300 301 298 297 297 296 295 296 295 294 295 295 296 297 296 297 297 297 297 297 297 296 296 296 294 292 291 291 290 290 289 289 290 290 293 294 295 295 295 294
297 299 299 298 300 300 298 298 297 296 296 295 296 296 296 296 297 298 297 297 296 296 297 297 296 296 296 295 294 292 291 291 290 290 289 289 290 288 287 290 294 294 295 295
299 298 296 297 297 299 298 297 297 296 296 296 296 297 297 296 297 296 296 297 297 297 296 296 296 295 296 295 293 292 292 292 290 288 290 290 289 289 288 287 287 289 293 294
298 299 298 299 298 297 297 296 295 295 295 295 297 296 296 295 295 295 297 297 297 296 296 296 295 295 296 294 293 292 291 291 290 290 290 290 290 289 288 288 288 288 290 291
298 297 297 296 297 296 296 295 294 294 295 295 296 296 296 296 296 296 297 297 295 294 296 296 295 295 295 293 293 292 291 291 290 289 289 289 290 288 287 287 287 287 288 288
294 293 294 295 295 295 295 295 295 295 295 295 295 296 295 295 295 296 296 297 297 296 296 296 295 295 294 293 292 291 290 290 290 288 289 289 289 287 287 287 286 287 288 290
298 298 298 297 296 296 295 295 295 295 295 295 295 295 295 294 294 295 295 296 296 296 296 297 295 294 293 293 292 292 290 290 288 288 289 289 289 288 287 286 287 286 287 288
297 297 297 297 297 296 296 295 295 295 295 295 295 294 295 295 295 295 296 295 295 294 295 296 291 292 293 292 291 292 290 288 287 287 289 289 287 288 287 287 287 287 288 287
296 297 297 296 296 297 296 295 295 295 296 295 295 294 294 294 295 295 295 294 296 296 295 295 293 293 292 292 292 290 289 288 287 288 288 287 287 286 287 287 287 287 287 287
296 296 296 296 295 295 295 295 295 295 295 295 294 293 293 295 295 295 293 293 296 296 293 291 292 292 293 292 291 289 289 287 287 288 287 286 286 286 287 287 287 287 287 287
296 295 294 295 295 294 295 296 295 295 294 294 294 293 292 292 292 292 293 293 296 292 293 292 292 292 292 291 290 289 288 288 287 288 288 286 286 285 285 287 286 287 287 287
294 294 294 294 294 294 295 295 295 294 294 293 292 292 291 291 292 289 289 294 294 293 292 293 291 292 290 290 289 289 288 287 287 287 287 287 287 287 287 286 286 287 286 286
294 294 294 294 294 294 293 295 295 295 294 293 293 293 292 291 291 293 293 294 294 292 293 292 291 290 289 289 289 288 288 287 287 287 287 287 287 287 287 286 286 287 287 287
294 294 294 294 294 295 294 294 295 295 294 294 294 294 293 293 291 292 293 292 292 292 292 290 289 289 289 289 288 287 287 287 287 287 287 286 287 287 287 287 287 287 287 287
293 294 295 294 295 295 295 295 295 294 293 292 292 292 292 293 293 293 292 291 292 291 290 290 290 289 288 288 287 287 287 286 286 286 287 287 287 287 287 287 287 287 287 288
294 294 294 294 295 295 295 294 293 292 292 291 290 292 292 291 293 291 290 290 290 290 290 290 289 288 288 287 287 287 286 286 286 286 287 287 287 287 287 287 287 288 288 288

GFSNGP_sfc_thetae_072.txt.gz
Theta_e
291 292 292 292 292 292 289 290 285 289 290 292 293 294 295 296 297 297 297 298 296 295 294 293 293 294 295 295 295 295 294 294 294 293 292 291 291 291 291 291 291 291 292 292
289 292 292 290 292 292 292 292 291 291 289 295 295 295 294 295 296 295 295 296 296 295 294 294 293 293 294 294 294 294 293 293 293 292 291 291 291 290 290 289 289 291 291 291
287 293 292 288 292 293 293 293 292 287 291 294 292 294 293 293 296 295 295 294 294 293 293 293 294 294 293 293 294 293 292 292 291 291 291 290 290 289 288 288 288 289 289 290
288 290 281 290 294 295 295 295 294 294 295 295 294 294 295 297 295 294 294 293 293 292 293 294 294 294 293 293 293 292 291 290 291 290 289 289 289 288 288 288 288 287 289 291
286 285 290 289 291 291 289 290 295 293 295 295 296 294 292 295 295 293 292 292 292 293 293 293 293 293 293 292 292 291 290 290 290 289 289 289 288 287 287 288 287 290 290 291
286 283 280 289 292 296 294 283 294 295 295 294 294 286 288 294 294 293 293 294 293 293 294 292 293 293 292 291 290 290 290 290 290 290 289 289 288 287 288 288 289 290 290 291
286 284 288 292 294 296 282 286 295 295 295 295 291 291 292 294 293 293 293 293 293 293 292 292 293 293 291 290 289 291 291 291 290 290 289 288 287 288 287 288 290 290 291 292
286 283 280 295 293 288 293 294 296 294 295 296 294 294 293 293 292 293 292 293 293 292 292 293 293 292 291 290 292 291 291 290 289 289 290 290 286 287 287 289 289 290 290 290
290 290 295 295 295 297 298 296 294 295 295 296 294 292 292 292 291 292 291 292 293 292 292 292 293 292 290 291 292 291 290 289 288 289 289 287 286 286 287 289 289 289 289 289
289 292 293 295 296 297 297 296 297 297 295 295 292 292 291 291 291 291 292 292 293 292 292 291 293 293 292 292 292 290 288 288 288 288 288 286 287 288 288 289 289 289 289 290
289 292 293 295 296 297 297 297 296 296 295 293 292 292 291 291 292 292 292 293 293 292 292 292 293 292 293 293 291 289 288 288 288 288 286 285 287 288 290 291 291 290 290 291
288 293 294 293 297 298 296 295 295 293 292 293 292 292 292 291 292 293 292 293 293 293 292 292 293 292 292 293 291 289 287 288 288 287 285 286 287 289 293 293 294 294 295 294
293 295 295 295 297 297 296 296 295 294 293 292 293 293 292 292 293 295 293 293 292 292 293 292 292 292 293 293 291 290 287 288 287 287 286 286 287 288 287 289 293 293 294 295
297 295 292 294 293 296 297 296 297 294 293 293 293 294 293 293 293 292 292 293 293 293 293 293 292 292 293 292 290 289 288 293 286 286 286 287 287 288 288 286 286 287 291 293
295 294 294 295 295 295 295 294 292 291 292 292 293 293 293 292 291 292 293 294 294 293 293 293 292 292 293 292 290 289 289 287 286 287 287 288 288 288 287 287 286 286 288 290
295 295 294 293 293 293 293 292 290 291 292 292 292 293 292 292 292 292 293 294 292 290 292 292 292 292 292 291 289 289 288 291 290 287 286 286 288 287 286 286 286 286 285 287
292 290 292 291 292 292 291 292 291 291 292 292 292 292 291 291 291 292 292 293 293 292 293 293 291 292 292 291 289 288 287 287 290 286 286 287 287 287 286 286 285 285 286 287
294 294 294 294 293 292 292 292 291 291 291 291 292 292 291 290 290 291 292 292 292 292 293 292 290 290 290 290 288 288 287 286 286 286 286 287 287 286 286 286 285 285 286 286
295 294 294 294 294 293 292 291 292 292 292 292 292 291 291 291 291 291 292 291 291 292 292 291 292 290 289 290 291 288 286 286 285 286 287 288 286 286 286 285 285 285 285 286
294 294 294 293 294 294 292 292 292 292 293 292 292 291 290 291 292 292 291 290 293 292 293 290 289 289 290 292 292 287 286 286 286 285 287 286 285 285 285 286 286 285 286 286
293 293 293 293 292 292 292 292 292 291 292 292 291 290 289 289 290 290 288 289 292 293 292 291 290 289 291 290 288 286 286 286 286 286 286 286 285 285 285 285 285 285 286 286
293 292 292 291 291 291 292 292 292 292 292 292 291 290 289 288 288 288 289 291 293 294 292 291 288 291 290 291 286 286 285 285 286 286 285 285 285 285 285 285 284 285 286 286
291 291 291 291 291 291 291 291 291 292 291 290 289 289 287 287 287 286 287 291 293 293 291 290 291 292 291 286 285 285 285 284 285 285 285 286 285 285 285 285 285 285 286 286
290 291 291 291 291 290 290 291 291 292 291 291 290 290 288 285 287 288 292 293 293 292 291 291 290 291 290 285 285 284 284 284 284 285 286 287 286 286 286 286 285 286 286 286
290 290 290 290 290 289 290 291 291 291 290 290 290 289 289 289 289 289 292 291 292 292 290 291 290 290 285 284 284 284 283 284 284 285 285 285 286 286 286 286 286 286 286 286
289 290 291 292 291 291 291 291 287 289 288 287 287 288 288 289 292 291 290 291 291 290 288 288 286 286 284 284 284 284 283 283 284 284 285 286 286 286 287 286 286 286 286 286
291 294 290 290 291 291 291 290 288 287 288 286 285 287 289 291 291 291 290 289 289 288 288 285 285 285 284 284 283 283 283 283 285 285 285 286 286 287 287 286 286 287 286 286

GFSNGP_sfc_thetae_075.txt.gz
Theta_e
287 289 289 289 290 289 286 286 283 286 286 289 290 291 292 293 294 293 294 294 293 292 291 290 290 291 292 292 292 292 292 291 291 291 290 289 289 289 289 288 289 288 289 290
286 290 289 288 290 290 289 289 287 287 286 291 291 291 291 292 293 293 293 293 293 292 292 291 291 291 291 291 291 291 290 291 291 290 289 288 288 288 288 287 287 288 287 288
283 290 289 285 289 290 290 290 290 285 289 291 290 292 291 291 293 292 291 291 291 291 291 291 291 292 290 290 291 291 290 290 289 289 288 288 288 287 287 286 286 286 286 287
282 286 279 288 291 292 292 293 292 292 292 293 292 292 292 292 291 290 291 290 290 290 291 291 291 292 291 291 290 290 289 289 288 288 288 288 287 287 286 286 285 285 286 287
282 281 286 287 289 288 287 287 293 292 293 293 294 292 289 291 291 290 290 290 290 291 291 290 290 291 291 290 290 290 289 287 288 288 287 287 286 286 286 284 284 285 287 289
282 278 277 286 290 293 290 279 292 293 292 292 291 284 286 290 291 291 291 292 291 291 291 290 291 290 290 290 289 288 289 289 289 288 288 287 286 286 284 285 286 288 288 291
281 277 284 290 291 293 278 280 291 293 292 292 289 288 290 291 291 291 291 292 291 290 289 290 291 290 289 289 288 290 290 290 289 288 287 287 286 284 285 285 286 286 289 290
281 278 278 291 290 284 287 291 293 292 292 291 290 291 291 291 291 291 291 291 291 290 290 291 291 289 289 288 290 290 289 289 288 287 288 289 284 284 284 284 285 287 289 289
284 284 291 291 290 293 294 293 291 292 293 292 291 290 291 289 290 290 290 291 291 290 290 290 291 290 289 290 291 290 288 287 287 287 287 285 284 284 284 285 286 288 288 288
286 288 291 292 293 295 294 294 294 294 293 292 289 290 289 289 289 290 290 290 291 290 290 290 290 291 290 290 291 289 287 286 286 286 287 284 285 286 285 286 289 288 288 289
285 287 289 291 292 294 294 295 294 293 293 291 290 290 289 289 290 290 290 291 291 290 290 290 291 291 291 291 290 288 286 286 286 287 284 283 284 285 288 290 291 289 289 290
284 289 289 290 293 295 293 293 293 291 290 291 291 290 290 290 290 290 290 291 291 290 290 290 291 291 291 291 290 288 286 286 286 286 284 284 285 286 292 293 293 293 294 292
289 291 291 292 294 294 293 293 292 291 291 290 291 291 291 290 291 294 291 291 290 290 290 290 290 290 291 291 290 288 286 286 286 285 285 285 285 286 286 289 291 291 292 293
292 292 289 290 291 294 294 294 295 292 291 291 291 291 291 291 291 290 290 291 291 291 291 291 291 290 291 290 289 288 287 291 284 284 284 284 285 286 287 286 285 285 290 291
291 291 291 292 292 292 292 291 289 289 290 290 291 291 291 290 289 290 291 292 291 291 291 291 291 291 291 290 289 288 287 286 285 286 287 287 286 288 287 286 286 285 286 288
291 291 291 291 290 290 289 289 288 289 289 289 290 290 290 290 290 290 291 291 290 289 290 290 292 291 291 289 288 287 286 291 290 287 285 285 286 287 286 285 286 285 285 285
289 288 288 288 288 288 288 289 289 289 290 289 289 289 290 290 290 289 290 290 290 290 291 292 291 291 290 289 287 286 286 286 288 284 284 285 287 286 285 285 285 285 285 287
291 290 291 291 290 289 289 289 289 290 289 289 290 290 289 288 288 289 289 290 290 290 291 292 291 289 289 288 288 287 285 285 284 285 285 286 287 285 285 285 285 285 285 286
292 291 291 291 291 290 288 289 289 290 290 290 290 289 289 289 289 289 289 289 289 289 290 291 293 289 287 292 292 286 284 284 285 286 285 288 285 285 285 284 284 284 285 286
290 291 291 290 291 290 289 289 290 290 290 290 290 289 288 288 288 288 287 287 289 291 292 291 290 288 290 291 291 285 284 283 286 285 286 285 285 285 284 285 285 285 285 285
290 291 291 291 290 290 290 290 290 289 290 290 289 287 286 287 287 287 285 287 292 293 293 292 288 288 289 289 286 284 284 283 284 285 284 284 284 284 284 284 284 285 285 285
290 290 289 289 289 288 289 290 290 290 290 289 288 288 287 286 286 285 288 289 292 294 292 290 290 292 290 289 284 284 283 283 285 285 284 285 284 284 284 285 285 285 285 286
289 289 289 288 289 288 289 289 290 290 289 288 287 287 286 286 285 282 283 290 292 293 291 291 293 292 291 284 283 283 283 283 282 283 284 285 285 285 285 285 285 285 285 285
288 288 288 289 288 288 287 288 290 290 289 289 288 289 287 283 284 287 291 293 293 292 291 291 290 291 288 283 282 282 282 282 282 283 285 286 285 285 286 285 285 286 286 286
288 288 288 288 288 287 288 289 289 288 288 287 287 287 288 289 287 288 290 291 293 291 289 291 290 289 283 282 282 282 281 282 283 284 284 285 285 285 286 286 285 285 285 285
288 288 288 289 288 288 288 288 285 286 286 284 284 286 289 291 291 290 290 291 290 289 288 286 284 283 282 282 282 282 281 282 283 283 284 284 285 285 287 286 285 285 285 285
290 291 289 288 289 289 288 287 285 284 285 284 283 285 288 291 291 290 290 289 288 288 287 283 282 284 282 282 281 281 281 281 284 284 284 284 285 286 286 287 286 286 285 285

GFSNGP_sfc_thetae_078.txt.gz
Theta_e
287 288 288 287 288 288 285 284 282 284 285 288 289 290 292 293 292 292 292 293 291 290 288 288 289 290 290 290 290 290 290 290 290 289 288 287 287 288 287 287 287 287 287 287
284 288 288 286 288 288 288 287 285 286 286 289 290 289 290 291 292 291 291 291 291 290 290 290 289 289 290 290 290 290 289 290 290 288 288 287 287 287 286 286 286 286 286 286
281 288 288 285 288 288 288 288 288 284 287 289 288 290 290 290 291 291 290 290 289 289 290 290 290 291 290 290 290 289 289 289 288 287 288 287 287 286 286 285 285 284 284 285
281 284 278 287 290 290 290 291 290 290 290 291 290 289 289 289 290 289 289 289 289 289 289 290 290 290 290 290 289 289 289 288 287 287 287 287 286 286 285 285 284 283 284 286
280 280 285 287 288 287 288 287 292 291 291 291 290 289 287 290 290 288 288 289 289 289 290 289 289 290 289 289 289 289 288 287 287 287 287 286 286 285 285 283 283 284 286 286
281 278 277 284 289 291 286 279 290 292 291 290 290 283 285 288 289 289 290 290 290 290 290 289 290 289 288 288 288 288 288 288 288 287 287 286 286 285 283 284 285 286 286 287
281 278 283 289 289 290 278 280 290 292 290 290 288 287 288 289 289 290 290 290 290 289 289 289 289 289 288 288 287 289 289 288 288 287 286 286 285 283 284 284 284 284 286 288
280 278 279 290 289 283 285 289 291 290 290 290 288 289 289 289 289 290 290 291 290 289 289 290 290 288 288 287 290 289 289 288 287 286 287 288 283 283 283 282 283 285 287 288
284 284 290 290 287 289 292 291 290 291 290 290 289 288 289 288 289 289 289 289 290 289 289 289 289 288 288 289 290 289 287 286 286 286 286 285 283 283 282 284 284 287 288 288
285 287 289 291 291 292 293 292 292 292 291 290 288 289 288 288 288 288 289 289 290 289 289 288 289 290 289 289 290 288 286 285 285 285 287 284 284 284 283 284 287 288 289 287
284 287 287 291 291 293 293 294 292 292 291 289 289 288 288 288 288 289 289 290 290 289 288 289 290 290 290 290 289 287 286 285 285 286 284 283 283 284 286 287 291 288 288 289
285 288 288 287 291 293 292 292 291 290 289 289 289 289 289 288 289 289 289 289 289 289 289 289 289 289 290 290 289 287 286 285 285 284 283 283 283 285 290 292 293 293 293 291
289 288 290 290 292 292 292 291 290 290 290 289 289 290 289 289 290 292 289 289 289 289 289 289 289 290 290 290 288 287 285 286 285 285 283 283 284 284 284 288 291 292 292 292
290 291 289 290 291 292 292 292 293 290 290 290 290 290 290 289 289 289 288 289 289 289 289 290 290 289 290 289 288 287 286 291 284 283 283 284 284 285 286 286 283 285 289 290
290 289 290 291 291 291 291 290 288 288 289 289 290 289 289 288 288 288 290 290 290 289 290 290 289 289 291 290 288 287 286 285 285 284 284 286 285 285 287 285 284 285 285 287
289 289 290 290 289 288 288 287 287 287 288 288 289 288 288 288 289 289 289 290 288 287 289 289 291 291 292 289 287 286 285 289 288 283 283 283 284 286 284 284 284 284 284 285
288 287 287 286 287 286 286 288 288 288 288 288 287 288 289 288 288 288 289 289 289 289 289 289 289 291 290 287 286 287 284 284 288 282 283 283 285 284 283 284 283 283 284 286
289 291 291 291 288 287 287 288 288 288 287 288 288 288 288 287 286 287 288 288 289 289 289 289 291 290 288 288 290 287 283 283 283 285 285 284 286 284 284 284 284 284 284 285
290 290 289 290 289 288 287 287 288 288 289 289 288 288 288 287 287 286 287 287 287 286 287 291 292 289 288 292 289 284 283 283 283 285 285 286 284 284 283 284 284 284 284 285
289 290 290 289 289 288 288 288 289 289 289 289 288 287 285 286 286 286 285 286 288 291 292 292 289 288 288 288 289 283 283 282 282 284 284 283 284 284 284 285 285 284 284 285
289 290 289 289 288 289 289 289 289 288 289 289 287 285 285 285 286 285 284 285 288 293 292 291 290 289 288 286 284 283 282 281 281 282 281 283 283 283 284 284 284 284 284 285
289 289 288 288 288 287 288 289 289 289 288 287 287 286 285 285 285 284 286 287 292 293 291 290 291 291 288 287 283 282 282 282 281 281 282 283 283 283 284 284 284 284 285 285
289 288 288 288 288 287 288 288 288 289 287 286 286 286 285 284 284 282 281 290 292 292 291 291 291 291 289 282 282 282 281 281 281 281 283 284 284 284 284 285 284 284 284 284
287 288 287 288 288 288 286 287 288 288 287 287 287 287 285 282 283 285 291 292 293 292 291 290 290 289 287 281 281 281 281 280 281 281 282 285 284 285 285 285 284 285 284 284
288 287 287 287 287 286 287 287 287 286 286 285 285 285 286 288 284 289 290 291 292 290 288 289 288 287 282 281 281 280 280 280 281 282 282 283 284 284 285 286 285 285 284 284
288 288 288 288 287 287 287 287 284 284 284 282 283 285 287 288 291 290 290 290 289 288 285 283 283 282 281 281 281 281 280 280 281 281 282 282 284 284 284 285 285 285 285 285
288 290 288 287 287 288 287 286 284 283 284 282 282 284 287 290 291 290 290 288 287 285 282 282 282 283 282 281 280 280 280 279 282 282 282 283 284 284 285 285 285 286 286 285

GFSNGP_sfc_thetae_081.txt.gz
Theta_e
286 288 286 285 286 287 285 284 283 284 284 287 289 290 292 292 291 291 291 291 290 288 287 287 288 288 289 289 289 289 290 289 289 289 287 287 287 287 287 286 286 286 286 286
284 287 287 286 287 287 286 285 285 285 285 289 288 289 290 290 291 291 290 291 290 289 288 288 288 288 289 289 289 289 289 289 289 288 287 286 286 286 286 286 285 285 285 285
281 287 288 285 288 287 287 287 287 283 287 288 287 289 289 290 291 291 290 289 288 288 289 289 289 289 288 288 289 288 288 289 288 287 287 287 286 286 285 285 284 284 283 283
280 284 278 286 289 289 289 290 289 289 289 290 289 288 288 289 290 289 288 288 288 288 288 289 289 289 289 289 288 288 288 288 287 286 286 286 286 285 284 284 283 282 283 284
279 279 284 286 287 286 286 287 291 290 289 289 289 288 287 288 288 287 287 288 288 288 289 288 289 289 289 288 288 288 288 287 287 286 286 286 285 284 284 283 282 283 285 284
280 278 277 283 288 290 286 280 289 291 289 288 288 283 284 286 288 288 289 289 289 288 289 288 289 288 288 288 287 287 288 288 287 286 286 285 285 284 283 283 284 285 284 285
281 277 283 288 289 289 278 281 288 291 289 288 287 287 287 288 288 289 289 289 289 289 288 288 288 288 288 287 287 288 289 288 287 287 286 285 284 282 283 283 283 282 284 286
280 278 279 290 288 283 286 289 289 288 289 289 288 287 288 288 288 289 289 290 289 288 288 288 288 287 287 286 289 289 288 287 286 286 286 287 283 282 282 282 282 283 285 287
284 284 290 290 287 288 290 290 290 290 289 289 287 287 288 288 288 288 288 289 289 288 288 288 288 287 287 288 289 289 287 286 285 285 285 285 282 282 282 283 283 285 287 288
286 287 288 290 289 291 292 291 291 291 289 289 287 288 287 287 287 287 288 288 289 288 288 287 288 289 288 289 289 287 286 285 285 284 286 284 283 283 283 283 284 287 288 286
284 287 286 289 290 292 292 292 292 290 289 288 289 287 287 287 287 287 288 289 289 288 287 288 288 289 289 289 288 287 285 285 284 285 283 282 283 283 285 286 288 289 288 289
285 289 287 286 289 292 291 291 291 289 288 288 289 288 288 287 288 288 288 288 288 288 288 288 288 288 289 289 288 286 285 284 284 284 282 282 282 284 290 291 292 293 292 291
289 286 288 289 290 291 291 291 290 289 289 288 288 288 288 287 288 291 288 288 288 288 288 288 288 289 289 289 287 286 284 285 285 284 282 282 283 283 283 287 291 290 291 292
289 290 288 289 289 291 291 290 292 289 289 289 288 289 289 288 289 288 287 288 288 289 288 288 288 288 289 289 289 286 285 290 284 282 282 282 282 283 284 285 283 284 288 289
289 288 289 290 290 289 290 289 288 287 287 288 288 288 288 287 287 287 289 289 289 288 288 288 288 288 290 289 287 285 285 284 284 282 282 284 283 284 284 284 283 284 284 287
288 288 288 289 288 287 287 287 287 286 287 287 287 287 287 287 288 288 288 288 287 286 287 288 287 288 289 287 285 286 284 288 288 282 282 282 283 286 283 284 283 283 283 284
287 285 286 286 286 285 286 287 288 287 287 287 286 287 287 287 287 287 287 288 288 287 287 288 287 289 288 287 288 288 283 283 287 282 285 282 284 284 284 284 283 283 283 285
289 290 291 291 287 286 286 287 287 287 286 286 287 287 287 286 285 285 286 287 287 287 287 289 289 289 287 290 289 285 282 282 282 282 284 283 285 284 284 283 283 283 284 285
290 290 289 288 288 287 286 286 287 287 287 288 287 286 286 285 285 285 286 286 285 285 287 291 292 289 287 289 287 283 282 282 281 282 284 285 283 284 283 283 284 284 284 284
288 289 289 287 288 288 286 287 288 287 288 288 287 285 284 284 285 284 284 285 287 290 292 290 289 287 288 286 288 282 282 281 281 281 282 283 283 283 283 284 284 284 284 284
288 289 288 288 287 287 288 288 288 287 288 287 285 284 283 284 284 284 283 283 288 292 291 291 290 290 288 285 283 282 282 281 280 280 282 283 283 283 283 283 284 284 283 284
288 288 287 287 287 286 288 288 288 288 286 285 285 285 284 283 283 283 285 285 291 292 291 290 290 290 287 286 282 282 281 281 280 280 282 283 283 283 283 284 283 283 284 284
288 288 287 288 288 287 287 288 288 287 285 285 285 284 283 283 282 282 282 291 292 292 289 290 291 290 288 281 281 281 280 280 280 280 281 283 283 283 283 283 285 284 284 284
287 288 287 287 288 287 286 286 287 286 286 286 286 285 284 281 282 284 290 292 293 291 290 289 287 288 286 281 280 280 280 279 280 281 281 284 284 284 283 284 284 285 285 284
287 287 287 287 287 285 286 286 286 285 285 284 284 284 284 285 283 288 290 290 290 288 285 288 288 286 281 281 280 280 279 279 281 282 281 281 283 283 283 284 284 285 284 284
287 288 288 287 287 287 286 286 284 283 282 281 282 284 286 287 290 290 289 289 288 286 282 282 283 282 281 280 280 280 279 279 280 281 282 282 283 284 284 284 284 284 285 285
287 289 286 286 286 287 287 286 285 283 283 283 283 283 286 290 289 289 289 285 283 282 281 281 281 283 281 281 280 279 279 279 282 282 281 281 283 284 284 284 284 285 285 286

GFSNGP_sfc_thetae_084.txt.gz
Theta_e
285 287 285 285 285 286 284 284 283 284 284 287 288 289 290 291 290 290 290 290 289 287 286 286 287 288 288 289 289 289 289 289 289 288 287 286 286 286 286 286 286 285 285 286
283 288 286 285 287 286 285 284 284 283 284 288 286 288 289 290 290 290 289 290 289 288 287 287 287 287 288 288 289 289 288 289 289 288 287 286 286 286 285 285 285 285 285 284
281 287 287 285 287 287 285 286 286 283 286 287 286 288 288 289 290 290 289 289 287 287 288 288 288 288 288 288 288 287 287 288 288 287 286 286 286 285 285 284 284 283 283 283
279 284 278 286 288 289 288 289 288 288 288 288 288 287 287 288 290 289 289 287 287 287 287 288 288 288 288 288 287 287 287 287 287 286 286 286 285 285 284 283 283 282 283 284
278 279 284 284 286 285 285 286 290 289 288 288 288 287 287 287 288 288 287 287 287 287 288 287 288 288 288 288 287 287 287 287 287 286 285 285 285 284 284 283 282 282 284 283
281 278 277 284 287 289 285 279 285 290 288 288 287 283 284 285 286 287 288 288 288 288 288 288 288 288 287 287 286 286 287 288 287 286 285 285 284 284 283 281 283 284 284 283
281 278 283 288 288 288 278 281 287 290 288 287 286 286 286 287 287 288 288 288 288 288 287 287 287 287 287 286 286 288 288 288 287 286 285 285 284 282 281 282 282 282 283 285
280 278 278 289 287 282 286 287 288 288 288 288 287 286 287 287 287 288 288 289 288 287 287 287 287 286 286 286 288 288 288 287 285 285 286 287 283 282 282 281 281 282 283 285
283 284 289 289 287 287 289 290 289 289 289 289 286 286 287 287 287 287 288 288 288 287 287 287 287 287 286 287 288 288 286 285 284 285 285 285 282 281 281 282 282 283 285 286
286 287 288 290 289 289 291 290 290 290 289 288 287 287 286 286 286 287 287 287 288 288 287 287 287 288 287 288 288 287 285 284 284 284 286 283 283 282 282 282 283 285 286 287
284 287 287 288 289 290 291 291 290 289 288 288 287 287 286 286 286 287 287 288 288 287 287 287 287 288 288 289 288 286 284 284 284 284 283 282 282 282 284 284 287 288 288 287
287 289 287 287 288 290 291 291 290 288 287 287 288 287 287 286 286 287 287 287 287 287 287 287 287 288 288 289 287 285 284 284 284 284 282 282 281 282 289 290 291 292 291 290
289 286 287 288 290 289 291 290 289 289 288 287 287 287 287 286 287 291 287 287 287 287 287 287 287 288 288 288 286 285 283 284 284 284 282 281 281 281 282 286 290 290 290 291
289 289 287 289 289 290 291 290 292 288 288 288 287 288 288 287 288 287 286 287 288 288 287 287 287 287 288 288 286 285 284 289 283 282 281 280 281 281 283 284 282 283 287 289
289 289 288 288 289 288 288 288 287 286 286 286 287 287 287 286 286 287 287 288 288 287 287 287 287 286 288 287 285 284 284 283 283 282 281 283 282 282 286 284 283 283 283 286
287 287 287 288 287 286 286 286 285 285 286 286 286 286 286 287 287 287 287 287 286 285 286 286 286 289 289 286 285 288 284 287 287 282 281 282 281 284 283 283 283 283 283 283
287 285 285 285 286 285 285 286 287 286 286 286 285 286 287 286 286 286 286 286 286 286 286 289 288 289 287 286 286 286 282 282 287 281 281 282 283 283 283 283 282 282 283 285
290 289 290 289 287 285 285 286 286 286 286 285 286 286 286 285 284 284 284 285 286 286 287 289 290 289 287 288 286 283 282 281 282 281 282 283 284 284 283 283 282 283 283 284
290 290 289 288 288 287 286 286 286 286 286 287 286 285 284 284 284 284 285 284 284 283 286 289 292 289 287 288 286 282 281 281 281 281 282 285 283 284 283 282 283 283 283 283
288 288 288 286 287 287 286 286 286 287 287 287 285 284 283 283 283 283 283 283 284 290 290 290 290 289 288 285 287 282 281 281 280 280 283 283 282 283 283 284 283 284 282 283
288 287 287 287 286 287 287 288 288 287 286 286 284 283 283 282 283 283 283 283 287 291 290 292 290 288 286 284 282 281 281 280 280 279 282 281 283 283 283 283 283 284 283 284
287 287 286 287 287 286 287 287 288 287 285 284 284 284 283 281 282 282 284 286 290 292 290 290 289 289 285 285 281 281 280 280 280 280 279 282 282 282 282 282 282 283 283 284
287 287 287 287 287 286 287 287 286 286 285 284 283 283 282 282 282 281 281 291 291 290 289 289 290 289 287 281 280 280 280 279 279 280 280 283 282 282 282 282 283 283 284 284
286 287 286 287 288 287 285 284 285 285 284 284 284 284 283 282 282 284 290 293 292 290 287 286 286 287 285 280 280 280 279 279 279 281 281 283 282 283 283 283 283 283 284 284
286 286 287 287 287 286 285 284 284 284 284 283 283 283 284 283 283 286 290 290 290 285 282 287 287 286 280 280 280 279 279 279 281 281 282 282 282 283 283 283 283 284 283 284
286 287 287 287 287 287 286 286 284 282 282 281 281 283 284 285 288 289 288 288 286 284 281 282 282 281 280 280 280 279 279 279 280 280 282 281 283 283 283 284 284 284 284 284
286 288 285 285 286 286 286 285 284 282 283 283 283 283 285 286 287 287 287 282 282 281 280 280 281 282 281 280 279 279 279 279 282 282 281 282 283 283 284 284 284 284 285 284

GFSNGP_sfc_thetae_087.txt.gz
Theta_e
287 288 288 287 287 288 287 288 287 289 287 291 292 293 295 296 294 293 293 293 293 291 291 292 292 293 294 294 294 295 295 295 295 295 294 293 293 293 292 292 292 292 292 292
285 290 288 286 288 287 287 288 287 287 288 292 291 292 293 294 293 293 293 293 292 291 291 292 292 293 294 294 294 295 294 294 294 294 293 293 292 292 292 292 292 292 292 291
283 287 288 285 289 289 288 288 289 287 292 292 291 291 293 293 294 294 293 292 291 291 291 292 293 293 293 293 294 293 293 293 293 293 293 293 292 291 292 292 292 291 290 290
283 285 281 289 291 291 290 290 291 290 292 291 291 289 290 291 293 293 293 292 291 291 292 292 293 293 293 293 293 293 293 293 293 292 292 292 291 291 291 291 291 290 289 290
282 281 286 287 289 288 288 289 288 291 291 290 290 291 291 290 292 292 292 291 291 292 292 292 293 293 293 292 292 292 293 293 293 292 291 291 290 291 291 290 290 289 289 289
283 281 280 287 289 292 289 283 288 292 290 290 291 289 290 289 290 290 291 291 291 292 292 293 292 293 293 292 292 292 292 293 292 291 290 290 291 290 290 289 288 289 289 289
283 283 286 290 291 291 283 285 290 293 291 290 291 290 289 289 289 291 291 291 292 292 292 292 292 292 292 291 292 292 292 292 292 291 290 291 290 290 289 288 288 288 287 289
282 282 281 292 290 287 289 291 292 292 292 291 290 288 289 289 290 290 291 291 291 291 291 291 292 292 291 291 292 292 292 291 291 291 290 290 289 289 288 288 287 287 287 288
286 287 292 292 291 292 291 293 293 293 292 292 289 288 289 289 290 290 291 291 291 291 291 291 291 291 292 292 292 292 291 290 290 290 290 290 289 288 287 287 287 287 287 287
288 289 290 292 292 291 293 293 294 294 292 291 289 289 289 289 289 290 290 290 291 291 291 291 291 292 292 292 292 291 291 290 290 289 291 290 288 288 287 287 287 287 287 288
286 289 290 291 291 292 293 294 293 292 291 291 290 289 289 289 289 290 290 291 291 291 291 291 291 292 292 292 292 291 290 289 289 289 289 288 288 287 287 289 289 288 288 288
288 291 291 291 291 293 292 293 292 290 289 290 290 289 289 289 289 290 290 291 290 290 290 291 291 291 292 292 291 289 289 288 289 289 288 287 286 286 289 290 291 291 291 290
291 290 290 291 291 293 293 293 291 291 290 289 289 290 289 289 289 292 290 290 290 290 290 290 291 290 291 290 290 289 288 288 288 287 287 286 285 285 284 287 290 289 290 290
292 291 290 291 291 292 293 292 292 289 290 290 289 290 290 290 290 289 289 290 291 290 290 290 290 289 290 290 289 288 288 289 287 287 286 285 286 285 285 285 283 285 288 289
295 291 292 291 291 290 290 289 288 288 288 288 289 289 290 288 288 289 290 290 290 290 289 289 289 289 290 290 288 288 287 287 288 287 286 286 286 285 285 284 284 284 285 286
290 289 289 290 289 288 288 288 287 287 288 288 288 288 288 289 289 289 289 290 289 288 288 289 289 290 290 289 289 289 286 287 287 286 285 285 285 285 284 284 284 283 284 284
289 287 287 288 288 287 287 288 289 288 287 288 287 288 288 288 288 288 288 288 288 288 289 290 289 290 290 290 288 286 286 285 286 284 284 285 285 284 284 284 283 283 284 285
292 293 292 291 289 287 286 287 288 288 288 287 288 288 287 287 286 286 287 288 288 288 289 291 291 290 289 290 287 286 285 284 284 284 284 284 285 285 284 284 283 284 285 285
291 291 290 290 290 289 287 287 288 287 288 288 288 286 286 286 286 287 287 287 286 287 288 291 292 290 288 289 287 285 284 284 283 283 283 285 284 284 284 284 284 284 285 284
289 291 290 288 289 289 287 287 287 288 288 287 286 285 284 285 286 286 286 287 288 290 291 292 291 288 287 286 287 284 283 283 283 283 283 283 283 282 283 283 283 283 284 284
288 289 287 288 287 288 288 288 288 287 287 287 286 284 284 284 285 285 286 286 289 291 292 291 289 287 286 285 284 283 283 282 283 283 282 282 282 282 282 282 283 283 283 284
287 287 287 287 287 286 288 289 288 287 286 285 285 284 284 283 284 286 287 288 291 291 291 290 289 289 287 285 283 282 282 282 282 283 282 282 282 282 282 283 283 284 284 284
287 287 287 287 287 286 288 288 287 286 285 285 285 284 284 284 285 285 286 291 291 291 288 288 289 288 286 283 282 282 282 282 282 283 282 282 282 282 283 283 283 284 284 284
286 287 286 287 288 287 285 285 286 286 286 285 285 285 285 284 285 288 291 292 291 288 288 288 287 286 284 282 282 282 281 282 282 283 282 283 283 284 284 283 283 284 285 285
286 287 287 288 287 286 285 285 285 285 284 284 284 285 286 286 287 289 290 290 288 285 285 287 286 285 282 282 282 281 281 281 283 283 282 283 283 283 284 284 284 284 284 285
287 287 287 288 287 287 286 286 285 284 284 283 283 285 286 287 289 289 288 287 285 285 283 284 285 283 282 282 281 281 281 282 282 283 283 283 284 284 284 284 284 284 284 285
286 288 286 286 286 286 286 286 285 284 285 285 284 285 287 287 288 287 286 284 283 283 282 283 283 284 282 282 281 281 282 282 283 283 283 284 284 284 284 284 284 284 284 285

GFSNGP_sfc_thetae_093.txt.gz
Theta_e
295 295 295 294 293 294 293 294 290 294 294 297 298 300 303 304 303 302 302 303 303 303 303 304 303 303 303 303 303 303 302 302 302 302 301 301 300 300 300 299 299 299 298 298
293 294 295 293 296 296 295 294 293 294 294 299 300 302 303 303 303 302 302 302 303 303 302 302 302 302 302 302 301 302 301 300 301 300 300 300 300 299 299 299 299 299 298 298
291 294 294 292 293 294 295 296 295 292 296 300 299 300 302 303 303 303 303 303 302 302 302 302 302 302 301 301 301 300 300 300 299 299 299 299 299 299 299 298 299 298 298 298
291 294 287 294 298 296 294 294 295 294 298 298 299 299 301 303 304 304 304 303 302 302 301 301 302 302 301 300 300 299 299 298 299 298 298 299 298 298 298 298 298 297 297 297
289 291 293 294 295 293 292 291 298 297 298 298 299 301 298 300 302 305 304 304 302 301 302 301 301 300 300 299 298 298 298 298 298 298 298 298 297 298 298 297 297 297 296 296
293 288 287 293 296 297 295 289 298 299 298 298 299 296 296 299 301 302 302 301 301 301 301 300 299 300 299 298 298 297 298 298 299 298 298 297 298 297 297 297 296 296 295 295
292 291 294 297 298 298 289 291 299 300 300 299 298 298 298 300 299 300 300 300 300 300 299 299 299 299 297 297 297 298 298 298 298 298 298 298 297 297 297 296 295 294 294 293
293 291 290 299 297 293 297 300 300 300 301 300 298 298 298 298 298 298 298 298 299 298 298 299 299 298 297 297 298 298 298 298 298 298 297 297 296 296 295 295 293 292 291 291
295 296 300 301 300 302 301 300 301 301 301 302 299 298 298 297 298 298 297 298 299 298 297 298 298 298 296 298 298 298 298 297 297 297 296 296 295 294 293 293 290 289 289 289
297 299 300 300 301 301 301 301 302 302 302 302 299 299 298 298 297 297 297 297 298 297 296 296 297 298 298 298 298 297 296 296 296 295 295 295 294 293 291 289 289 289 288 289
297 300 301 301 301 301 302 302 301 301 302 301 301 299 298 297 297 297 297 297 297 297 296 296 297 297 298 298 298 296 296 295 294 294 293 292 291 291 290 290 290 288 289 289
294 301 300 301 303 304 302 301 302 301 300 301 301 299 299 297 298 297 297 297 297 297 296 296 297 297 297 297 297 295 293 293 293 292 291 290 289 289 292 292 291 291 291 290
299 303 302 303 303 303 301 301 301 301 301 299 300 299 299 297 297 298 297 297 297 296 296 296 296 296 296 296 294 293 292 292 291 290 289 289 289 288 286 288 290 290 291 291
302 302 300 302 301 302 301 301 301 301 301 300 299 299 298 297 297 296 296 297 297 297 296 296 295 294 294 294 294 293 292 292 290 289 289 289 288 288 286 285 284 285 288 289
300 301 301 303 303 301 301 300 298 298 298 298 298 297 297 296 296 296 297 297 296 296 295 294 293 292 294 294 293 291 292 290 288 289 289 289 288 286 285 285 284 284 285 287
300 301 301 300 299 301 300 299 298 297 297 297 297 297 297 297 296 296 296 296 295 293 293 292 292 293 294 293 291 291 290 289 288 288 288 288 286 285 285 285 285 285 284 285
298 297 299 298 299 300 299 299 299 297 297 296 296 297 296 296 295 295 295 295 295 293 293 292 291 292 292 292 291 290 289 288 288 288 287 287 286 286 284 284 283 284 284 286
301 302 302 301 300 300 299 299 299 298 296 297 296 296 295 295 294 293 293 293 292 292 292 292 292 292 292 291 290 289 288 287 287 287 287 287 286 284 284 283 283 283 284 285
300 299 301 302 302 302 300 299 298 298 297 296 296 295 295 295 294 293 293 291 291 290 290 293 291 291 290 289 288 288 287 286 286 287 287 286 283 283 283 283 284 284 284 284
297 298 301 302 302 300 298 298 298 296 296 296 296 294 293 293 293 292 292 291 291 291 292 292 292 290 289 288 287 287 286 286 286 287 286 283 283 282 283 284 284 284 285 285
296 297 300 301 300 300 298 298 296 295 296 296 294 293 292 292 292 292 290 288 290 292 292 291 290 289 289 287 287 287 286 286 286 286 284 282 282 283 284 284 284 284 285 285
296 297 300 301 299 297 298 297 297 296 295 294 294 293 291 291 291 292 292 290 291 291 292 291 290 287 287 287 287 286 286 286 286 286 283 282 283 283 284 284 284 285 285 285
297 299 300 298 297 296 296 296 295 295 294 293 292 291 291 292 292 289 287 291 292 291 291 290 288 286 286 287 286 286 286 286 286 284 283 283 284 284 284 284 285 285 285 285
296 297 297 297 296 295 293 295 295 294 293 293 293 293 292 292 292 292 292 292 291 290 290 289 287 286 286 286 286 286 286 286 286 284 283 285 285 286 286 285 285 286 286 285
295 295 295 295 294 294 294 294 293 293 292 292 292 292 293 294 291 292 292 292 290 289 289 286 285 285 286 286 286 285 286 286 286 285 286 286 285 287 286 285 285 285 285 286
294 294 296 295 295 295 294 294 292 293 292 291 291 292 292 293 292 293 292 291 289 287 288 288 287 286 286 285 285 285 285 286 286 286 287 286 285 285 284 285 285 285 286 286
295 296 295 294 295 295 295 294 293 292 292 291 290 291 292 291 292 292 291 290 288 287 287 287 287 286 286 285 285 285 286 286 286 286 287 285 285 285 285 286 286 286 287 287

GFSNGP_sfc_thetae_096.txt.gz
Theta_e
293 294 293 292 292 292 290 289 285 289 290 293 295 297 300 300 300 299 299 300 300 298 297 297 297 297 297 298 297 297 297 297 295 296 295 295 294 294 294 293 293 293 293 293
290 295 294 292 294 294 294 293 291 292 291 296 297 299 298 298 299 298 298 299 299 299 298 297 296 296 297 296 296 296 296 295 296 296 295 295 294 294 294 293 293 293 293 293
287 294 294 289 291 293 293 292 290 288 292 296 295 298 297 298 299 299 299 299 298 298 297 297 296 297 295 295 295 295 294 295 295 295 294 294 294 294 293 292 292 292 292 292
286 291 282 291 295 295 293 293 294 293 296 296 296 295 296 297 298 299 300 299 298 297 296 296 296 296 295 295 294 294 293 294 294 294 294 294 293 292 292 291 291 291 291 291
285 285 290 292 293 292 290 290 296 295 296 296 296 295 292 297 300 300 299 298 296 296 296 296 295 295 294 293 293 293 293 293 294 294 293 293 292 291 292 291 290 291 291 290
288 284 282 291 294 296 293 284 296 296 295 295 296 290 289 295 298 297 297 297 297 296 296 294 294 294 294 293 292 292 293 294 294 294 293 292 291 291 291 291 291 292 291 290
287 286 291 294 295 297 284 286 296 297 296 296 293 292 294 296 296 297 296 296 296 295 293 293 294 294 293 292 292 294 295 294 294 293 292 292 291 291 290 290 290 289 290 289
289 285 284 297 295 290 293 295 296 296 297 296 294 295 295 296 295 295 294 295 295 293 293 293 293 292 292 292 293 294 294 294 293 292 293 293 290 290 290 289 288 288 285 285
291 291 297 297 296 298 298 296 296 295 297 297 295 295 295 294 294 294 294 294 294 293 292 292 293 292 291 293 294 294 293 292 291 292 291 291 289 288 288 287 285 285 285 285
293 296 297 297 297 298 298 297 298 298 298 298 296 295 295 294 294 293 294 293 294 293 292 291 293 293 293 294 295 293 291 290 290 289 290 289 289 288 285 284 284 286 286 286
293 296 298 298 298 298 298 299 298 298 298 298 297 296 295 294 293 293 293 293 293 292 292 292 293 293 294 294 294 292 290 290 289 289 288 286 286 285 286 285 288 288 287 287
289 296 295 297 299 300 298 297 298 298 296 298 298 296 295 294 294 293 293 293 293 293 292 292 293 293 293 294 292 290 289 288 288 287 286 285 284 284 292 292 292 291 291 290
293 297 298 298 299 299 297 298 298 298 298 297 297 296 295 293 293 297 294 293 293 292 292 292 292 292 292 292 291 290 287 288 287 287 285 284 284 283 282 287 290 290 290 291
297 296 294 297 296 299 299 298 300 298 298 298 296 296 295 294 294 293 293 293 293 293 292 292 291 290 293 291 290 289 290 292 284 284 284 284 283 283 285 284 283 284 288 289
297 297 297 297 298 298 298 298 296 295 295 295 295 295 294 293 292 293 293 294 293 292 291 291 290 289 291 291 289 288 289 285 284 284 284 285 283 282 285 285 284 283 284 286
297 297 296 295 296 296 296 296 294 294 294 294 294 294 294 293 293 293 293 293 291 289 290 290 289 290 290 289 288 287 286 289 288 283 283 284 283 285 284 283 282 282 282 283
294 293 295 294 295 295 294 296 295 294 294 294 293 294 294 293 292 291 291 291 291 290 289 289 288 290 290 288 286 286 284 284 288 283 283 283 285 284 283 282 282 282 283 285
297 297 298 297 296 296 296 296 296 295 294 294 294 294 292 292 290 289 290 289 289 288 288 289 289 290 289 287 286 284 283 282 283 283 284 285 284 283 282 282 282 282 283 284
298 297 296 297 298 297 296 295 295 295 295 294 293 292 292 291 291 290 289 288 287 286 287 290 291 290 286 287 286 283 282 282 282 283 284 284 282 282 282 282 282 283 282 283
295 296 296 296 298 297 296 296 295 294 294 294 293 292 290 290 290 288 288 287 287 287 290 289 289 286 285 285 287 283 282 282 282 282 282 282 281 281 282 283 283 283 282 283
294 294 295 295 297 297 296 296 294 293 293 294 292 290 289 289 289 288 286 284 287 290 289 290 287 284 284 284 284 282 282 282 282 281 280 281 281 280 281 282 283 283 283 284
292 293 294 295 296 295 295 295 294 294 293 292 291 290 289 287 288 288 288 286 288 292 290 287 285 286 284 287 282 282 282 282 282 281 282 282 281 280 281 283 283 284 284 284
292 293 294 296 295 294 294 294 294 293 292 291 290 289 287 287 287 285 284 288 289 290 287 286 287 287 287 282 282 282 282 281 281 280 281 283 283 283 284 283 283 284 284 284
293 295 295 295 294 293 291 292 292 292 291 290 289 290 289 286 286 288 289 292 292 289 287 286 285 286 287 282 281 281 281 281 281 281 281 285 284 284 284 283 283 284 284 285
292 292 293 293 292 291 291 291 290 289 289 289 289 289 290 289 287 288 288 288 291 288 284 287 286 286 282 281 281 281 281 281 281 282 281 282 284 284 284 284 284 284 285 285
291 292 292 292 292 291 291 290 288 288 288 287 287 288 289 290 289 289 288 289 286 287 284 284 283 282 281 281 281 281 281 281 282 282 283 284 284 284 284 285 285 285 285 286
292 294 292 292 292 292 291 290 288 288 288 288 286 287 288 288 290 288 289 285 283 283 283 283 283 283 282 282 281 281 281 281 284 282 282 284 285 285 285 285 285 285 286 286

GFSNGP_sfc_thetae_099.txt.gz
Theta_e
289 291 291 289 290 291 287 286 282 286 287 290 292 296 296 297 297 297 297 298 297 295 294 294 294 294 295 295 295 295 294 293 293 293 293 293 293 292 292 292 292 292 291 292
286 292 291 289 291 291 290 289 288 289 288 294 296 296 296 295 296 296 297 297 297 296 294 294 293 293 294 293 294 294 293 293 294 294 294 293 293 292 292 291 291 291 291 291
282 289 290 286 288 289 288 289 287 285 290 292 292 294 293 294 297 296 296 296 295 295 294 294 294 294 292 292 292 292 293 293 293 293 293 292 292 291 291 290 289 289 289 290
282 286 279 288 292 292 290 292 292 292 293 293 292 292 292 294 296 296 297 295 294 293 293 293 293 293 292 292 291 291 291 292 292 292 292 291 291 290 290 289 289 289 289 289
280 280 287 288 290 289 287 288 293 292 293 294 293 293 291 295 296 296 295 294 293 293 292 292 292 292 292 291 291 291 291 291 291 291 291 291 290 289 289 289 289 289 289 289
282 279 279 287 291 293 290 282 293 294 292 293 293 288 288 293 294 294 294 295 294 293 292 291 291 292 291 290 291 291 291 292 292 292 291 290 289 289 289 289 289 290 289 289
281 278 287 291 293 294 281 285 293 295 293 293 290 291 292 294 294 294 294 294 293 292 290 291 291 292 290 290 290 292 293 293 292 291 291 290 289 288 288 288 288 287 287 285
283 279 281 294 292 287 291 292 294 294 294 292 291 292 293 293 293 293 292 292 292 290 290 290 291 290 290 289 291 292 293 292 291 289 291 291 287 287 287 286 284 283 283 284
287 287 294 294 293 295 295 293 293 294 294 294 293 292 293 292 292 292 292 292 292 290 290 290 290 291 290 290 292 292 291 289 289 289 288 288 286 285 284 283 283 283 284 283
289 291 293 294 294 295 295 294 295 296 296 295 293 293 292 292 291 291 291 291 291 290 290 289 290 292 291 292 292 290 288 287 287 287 287 286 285 285 283 283 283 285 285 285
289 292 293 294 294 296 297 297 296 296 297 296 294 293 292 291 291 291 291 291 291 290 290 290 291 291 291 291 290 288 287 286 286 286 285 284 284 284 285 284 288 287 286 287
287 293 291 292 295 297 295 295 296 296 295 296 295 294 293 291 291 291 290 291 290 290 290 290 290 290 290 290 289 287 286 286 286 285 283 283 283 283 290 291 291 291 291 289
291 291 292 293 294 297 296 296 296 296 296 295 294 294 293 291 291 294 291 291 291 290 290 290 289 289 289 290 289 288 285 286 283 284 283 282 282 281 280 284 289 289 290 290
293 292 290 292 292 295 297 297 299 297 296 295 294 294 293 293 294 291 291 291 291 291 290 289 288 288 289 290 288 287 286 290 282 282 282 281 281 281 281 282 283 284 286 287
295 295 294 294 293 295 296 295 294 294 294 293 293 293 293 291 291 291 291 292 291 290 289 289 288 288 290 289 287 286 285 283 283 282 282 284 282 281 284 284 282 282 282 284
294 294 293 291 292 292 294 293 292 292 292 292 292 292 291 292 291 291 291 290 289 287 287 288 287 288 288 286 285 284 283 288 287 282 282 282 282 284 283 282 281 281 282 282
291 291 291 291 292 292 292 294 294 293 293 292 291 292 292 291 290 289 289 289 288 287 287 287 287 288 288 285 283 283 282 282 287 281 282 282 281 280 282 281 281 281 281 283
294 294 293 294 294 293 293 294 293 293 293 292 292 292 291 290 289 288 287 287 287 286 287 287 287 287 286 285 283 282 281 281 281 282 283 282 280 282 282 281 281 282 281 282
295 294 293 294 294 294 293 293 293 294 293 293 292 291 291 290 289 288 287 286 285 284 285 287 291 286 283 286 284 281 280 281 281 282 282 282 280 279 279 280 282 281 281 282
293 293 293 293 294 294 293 294 293 293 293 293 292 291 289 289 288 287 286 285 285 286 287 288 285 283 282 284 286 281 281 280 281 280 281 279 278 278 279 281 282 282 282 283
291 292 292 292 292 293 294 294 293 292 292 293 291 290 289 288 287 287 285 284 286 288 288 288 283 282 282 283 282 281 281 280 280 279 279 278 279 281 281 282 282 282 283 283
290 290 291 292 291 291 293 293 293 292 292 291 290 289 288 286 286 285 286 285 287 292 287 284 283 286 284 286 281 281 281 280 280 280 278 280 283 283 282 283 282 282 283 283
288 289 291 292 291 292 292 292 292 292 290 290 289 288 287 287 287 285 283 286 287 289 284 283 287 288 287 281 281 281 280 280 280 280 279 280 284 283 283 283 283 283 283 284
289 289 290 292 293 291 289 290 291 291 290 289 288 288 287 285 284 286 288 291 291 288 284 285 286 288 286 280 280 280 280 280 280 280 281 285 284 284 284 284 283 284 284 285
289 291 291 291 290 289 289 289 288 288 288 287 287 287 287 287 286 286 287 288 291 286 283 288 288 287 281 280 280 280 280 280 281 281 280 283 283 284 284 284 284 284 285 285
289 289 289 290 289 289 289 289 287 287 287 286 287 287 287 287 288 287 287 288 286 286 282 282 281 281 280 280 280 280 280 280 281 281 282 284 284 284 284 284 284 284 285 285
290 292 290 289 290 289 289 288 287 287 288 288 286 287 287 287 287 287 288 284 282 282 281 281 282 282 281 281 280 280 280 280 283 282 282 284 284 284 284 285 284 285 285 286

GFSNGP_sfc_thetae_102.txt.gz
Theta_e
287 289 289 288 288 289 285 284 280 283 285 288 292 293 294 295 296 296 296 296 295 294 293 293 293 296 296 296 296 294 293 292 291 291 291 291 291 291 291 291 290 291 290 290
285 289 289 288 289 288 287 285 285 287 286 291 292 294 293 294 295 294 294 294 294 294 293 292 292 291 292 292 292 293 292 291 292 292 292 291 291 291 290 290 289 290 289 289
280 287 287 284 286 287 286 288 286 284 287 291 291 292 291 292 294 294 294 293 293 293 292 292 291 292 291 291 292 291 291 291 292 292 291 291 290 290 289 288 288 288 288 289
280 284 278 287 290 290 290 290 290 290 291 291 291 291 290 292 294 294 294 293 292 291 291 291 291 290 290 291 290 290 290 290 291 291 290 290 290 289 288 288 288 288 288 288
278 280 285 287 289 288 286 286 291 291 291 291 292 290 290 292 295 294 293 292 291 291 290 290 290 290 290 289 290 290 290 290 290 290 290 290 289 288 288 288 288 288 288 287
281 278 278 287 289 291 289 281 291 292 291 291 290 286 287 291 293 292 292 292 291 290 290 290 289 290 290 290 289 289 290 290 290 290 290 289 288 288 288 287 288 288 287 285
280 278 284 291 291 292 279 283 291 293 292 291 289 290 291 292 292 292 292 291 291 290 289 289 290 290 289 289 289 290 291 291 291 290 289 288 287 287 286 286 286 283 284 284
281 279 281 293 291 287 290 290 292 292 293 291 290 291 291 292 291 291 291 291 290 289 288 288 289 290 288 288 290 291 291 290 289 288 289 289 286 285 285 283 282 281 282 283
286 287 294 294 293 293 293 293 292 293 293 292 291 291 291 290 290 290 290 290 289 289 288 289 290 290 289 289 290 289 288 287 286 287 286 286 284 283 282 282 282 283 283 282
288 290 292 293 293 294 295 294 295 295 294 293 291 291 291 290 290 289 290 289 289 289 288 288 289 290 290 290 289 287 286 285 285 285 285 283 284 284 282 282 283 284 285 285
287 289 292 294 293 294 295 295 294 295 295 294 293 291 291 290 289 290 290 289 289 289 288 289 289 289 289 289 288 286 285 285 285 284 282 282 283 283 284 284 286 284 284 286
286 291 291 291 294 295 295 295 295 295 294 294 294 292 291 290 290 290 289 289 289 289 289 288 288 288 288 289 287 286 285 285 284 282 281 281 281 281 288 289 290 290 290 289
291 291 291 291 293 294 295 296 296 295 295 294 293 293 292 290 290 293 290 289 289 289 289 288 287 287 288 288 287 286 284 284 282 283 281 280 280 281 279 283 288 288 289 289
291 291 290 291 292 294 296 296 299 295 295 294 294 293 292 291 293 290 290 290 290 289 288 287 287 287 288 288 286 285 284 288 281 281 281 281 281 281 280 281 280 280 285 287
291 292 292 292 292 293 295 295 294 293 293 292 293 292 292 291 290 290 290 291 290 289 287 287 287 287 288 287 285 283 283 282 281 281 281 283 281 281 281 280 280 280 280 283
292 293 293 291 292 292 292 293 292 292 292 290 291 291 292 291 291 290 290 290 288 286 286 287 286 286 286 284 283 282 281 287 286 281 281 282 281 280 279 279 279 279 279 280
289 289 289 288 290 290 292 294 294 293 292 291 291 290 291 290 290 289 288 288 287 287 286 286 285 287 285 283 282 281 280 281 286 281 281 281 280 278 279 279 279 279 280 282
293 292 293 293 293 292 291 293 293 292 292 292 291 291 290 290 289 287 287 286 286 285 285 286 286 285 284 283 282 281 280 280 281 281 281 281 279 279 279 279 279 279 281 282
293 293 293 292 292 293 292 292 292 293 291 291 291 290 291 290 288 287 286 285 284 283 284 286 290 285 282 285 282 281 280 280 281 280 281 281 279 279 278 278 280 282 282 283
292 292 293 292 293 292 292 292 292 292 292 292 291 290 288 288 287 286 286 284 285 285 286 287 283 282 281 284 285 280 280 280 280 279 280 279 279 282 280 281 283 282 281 282
291 292 292 292 292 292 292 292 292 291 291 292 290 289 288 287 287 286 284 283 284 288 286 287 282 281 282 283 282 281 280 280 280 279 278 277 280 282 282 282 282 282 282 283
290 290 291 290 290 291 291 292 292 292 291 291 290 289 287 286 286 285 285 285 286 291 285 283 281 285 283 285 281 280 280 280 280 279 278 278 279 283 282 281 281 283 283 283
288 288 288 289 290 290 291 291 291 291 290 290 289 288 287 286 286 284 282 285 287 289 283 282 287 289 288 280 280 281 280 280 280 280 279 280 283 283 283 282 283 283 283 284
287 287 288 289 290 290 289 289 290 290 290 289 289 288 287 285 283 285 287 290 291 288 283 284 286 288 285 280 280 280 280 279 280 280 280 283 283 283 283 283 283 283 284 284
287 288 289 289 289 289 288 288 288 287 287 286 287 287 286 286 285 285 287 288 291 286 283 289 289 288 280 280 280 279 279 280 281 281 280 282 283 283 283 284 283 284 284 284
287 287 288 289 288 288 288 288 286 287 287 285 285 286 286 286 287 287 287 287 285 286 281 282 282 281 280 280 280 280 280 280 280 281 281 283 283 283 283 284 283 283 284 284
288 290 288 287 287 288 288 288 287 287 287 286 285 286 286 286 286 286 287 284 282 281 281 281 282 282 280 280 280 279 279 280 282 281 283 283 284 284 284 284 284 284 284 285

GFSNGP_sfc_thetae_105.txt.gz
Theta_e
285 287 287 287 287 287 283 283 280 282 284 288 290 290 291 294 295 294 294 293 293 292 292 292 294 294 293 292 292 293 292 291 290 290 290 290 290 290 290 290 289 289 289 289
283 287 287 286 288 288 285 284 284 285 285 290 291 291 292 291 293 293 292 293 293 292 292 291 290 290 291 291 291 292 290 290 291 291 291 290 290 289 289 289 289 289 288 288
279 285 286 283 285 286 285 286 285 283 286 290 289 291 290 291 293 292 292 292 292 292 291 290 290 291 290 290 290 290 290 290 291 291 290 289 289 289 289 288 287 287 288 288
279 283 278 286 289 289 288 289 289 289 289 291 291 290 290 292 292 292 292 291 291 290 290 290 290 290 290 290 289 289 289 289 290 289 289 289 289 288 287 287 287 287 287 287
278 278 284 287 287 287 285 285 291 290 290 289 291 289 289 291 293 293 291 291 290 290 289 288 289 289 289 288 289 289 289 288 289 289 289 289 288 287 287 287 286 286 287 286
280 277 278 286 288 289 288 281 291 291 290 289 289 285 288 289 292 291 291 291 290 289 288 288 288 289 289 288 288 288 289 289 289 289 289 288 287 287 286 286 287 287 286 283
280 277 283 290 291 290 279 283 291 292 291 290 288 289 290 290 290 290 290 290 289 289 288 288 288 289 288 288 288 289 290 290 289 288 287 287 286 285 285 285 284 282 283 283
280 277 279 293 289 286 288 289 291 292 292 291 290 290 290 290 290 290 290 290 289 288 287 287 289 289 287 287 289 289 289 288 287 286 288 287 284 283 283 282 281 281 281 282
285 285 292 293 291 292 292 292 292 292 293 292 290 290 290 289 289 289 289 288 288 287 287 287 288 289 288 288 288 287 286 285 285 286 285 284 282 281 281 281 281 282 282 282
287 291 291 293 293 294 294 293 294 294 294 292 291 290 290 289 288 288 288 288 288 288 287 287 288 289 288 288 287 286 285 284 284 283 283 282 283 283 282 282 282 283 283 283
286 288 291 293 293 294 294 294 294 294 294 293 292 291 290 289 288 289 288 288 288 288 288 288 288 287 287 287 287 285 284 284 283 282 281 281 281 281 283 283 284 284 283 285
285 289 289 291 292 295 294 295 295 294 293 293 293 292 290 289 289 289 288 288 288 288 288 287 287 286 287 287 286 285 284 283 283 281 280 280 280 281 287 289 290 290 290 288
290 291 291 291 291 293 294 295 295 295 295 293 293 293 291 289 289 292 288 288 288 288 288 287 286 286 287 287 286 285 282 282 281 282 280 280 280 280 279 282 287 287 288 288
293 289 287 290 291 293 294 295 297 294 294 295 293 293 292 290 291 289 288 289 289 288 287 286 286 286 287 286 285 284 282 288 280 280 280 280 281 280 280 279 278 279 284 286
290 290 292 290 291 292 294 294 294 293 293 292 292 292 291 290 289 289 289 289 289 288 286 286 286 285 286 286 283 282 281 281 280 280 280 283 281 280 279 279 278 279 280 283
291 292 290 290 290 291 291 291 293 292 292 291 291 290 291 291 289 289 289 289 288 286 286 286 285 285 285 283 282 281 281 286 284 280 281 280 280 279 278 278 278 278 279 279
288 287 287 287 289 290 290 293 294 294 293 291 291 290 290 289 288 288 288 288 287 286 286 285 284 285 284 282 281 281 280 281 285 281 280 280 279 278 278 278 278 279 280 282
292 292 292 291 290 290 289 290 292 292 292 292 290 290 289 289 288 287 287 286 285 285 285 285 285 284 283 282 281 280 280 280 281 281 281 280 280 279 278 278 279 281 282 283
292 292 291 292 292 291 291 291 291 292 290 290 290 289 290 290 288 287 286 285 284 283 283 285 290 284 281 283 282 280 280 280 280 279 281 282 279 280 281 279 280 281 281 282
290 291 292 291 292 291 291 291 291 290 290 291 290 289 287 287 287 286 286 285 285 284 285 286 283 281 281 285 285 280 280 280 280 279 280 279 278 282 280 281 281 282 282 282
289 290 290 291 291 291 291 291 290 289 290 291 290 288 287 287 287 286 284 283 283 288 285 288 281 280 281 283 282 280 280 280 280 279 278 276 278 282 282 282 282 283 283 283
289 289 290 290 290 290 290 290 290 290 290 290 289 288 287 285 285 285 284 285 285 291 286 282 281 284 282 286 280 280 280 280 280 279 278 278 281 282 282 282 282 282 282 283
288 289 289 289 289 289 289 289 290 290 290 289 288 288 287 286 286 284 282 284 287 288 282 281 285 289 289 280 280 280 280 280 280 280 279 278 282 282 283 282 282 283 282 283
286 286 287 288 288 288 287 288 290 291 290 289 289 289 287 284 283 285 287 290 291 289 282 283 288 290 286 280 280 279 279 279 279 280 280 283 283 283 283 283 282 283 283 283
286 286 287 287 286 286 288 288 289 289 288 286 286 287 287 288 287 285 287 288 291 286 282 290 290 289 280 280 279 279 279 279 280 280 280 281 283 283 283 283 282 283 283 283
285 286 286 288 287 288 288 289 286 286 286 284 284 285 285 286 287 287 287 288 286 286 282 283 283 281 279 279 280 280 279 280 280 280 281 283 283 283 283 283 283 283 284 283
286 288 287 286 287 287 287 287 286 286 286 286 284 285 286 286 286 287 288 285 283 281 281 281 282 282 280 280 280 279 279 280 282 281 280 282 283 283 283 283 283 283 284 284

GFSNGP_sfc_thetae_108.txt.gz
Theta_e
283 285 285 285 285 286 283 282 279 281 282 287 288 290 291 293 293 293 293 294 293 292 291 291 291 291 291 291 291 292 291 290 289 290 290 290 290 289 289 289 289 289 289 289
280 285 285 284 287 286 285 283 283 284 284 289 290 291 291 291 292 291 292 292 292 291 291 291 290 290 290 290 290 291 290 290 290 290 290 289 289 289 289 288 288 288 288 288
278 283 284 282 285 285 283 285 284 282 286 289 289 291 290 291 292 291 291 291 291 290 290 290 289 290 288 288 289 289 289 289 289 289 289 288 289 288 288 287 287 287 287 287
278 281 278 285 288 288 286 288 288 287 289 290 290 290 290 291 292 291 291 291 290 289 289 289 289 289 289 289 288 288 288 288 289 289 288 288 288 287 287 286 286 286 286 286
277 278 283 286 286 286 285 284 290 289 289 289 290 289 289 292 293 292 291 291 290 289 288 288 288 288 288 288 288 288 288 288 288 288 288 288 287 286 286 286 285 285 286 285
279 277 277 285 287 288 287 281 289 290 289 289 288 284 287 290 292 291 291 290 289 288 287 287 287 288 288 288 288 287 288 288 288 288 287 287 286 285 285 284 286 286 284 282
278 277 282 288 290 288 278 284 289 291 290 289 288 289 289 290 289 290 290 289 288 288 287 287 288 288 287 287 287 288 289 288 287 287 286 285 284 284 283 283 282 281 281 282
279 277 278 291 288 284 287 288 290 291 290 290 290 289 289 290 289 289 289 289 288 287 286 287 288 288 287 287 287 287 287 286 285 284 286 285 282 281 281 281 280 280 281 282
284 284 291 291 290 290 291 291 290 291 292 292 291 290 290 289 288 288 288 288 287 287 286 287 287 288 287 287 287 286 285 284 284 284 283 282 281 281 281 281 281 281 282 281
287 289 291 292 294 293 293 292 292 293 293 292 290 290 289 289 288 287 287 287 287 287 286 286 287 288 287 286 286 285 284 283 282 282 281 281 281 281 281 281 280 282 282 282
285 288 289 292 292 294 293 293 293 293 294 293 291 290 290 289 288 287 287 287 288 288 287 286 287 286 286 286 286 284 283 283 281 281 279 279 280 280 282 282 284 284 283 283
284 291 289 288 291 293 293 293 293 293 292 292 292 291 290 289 289 288 287 287 287 287 287 286 286 286 286 286 285 284 282 281 282 280 279 279 280 280 287 289 289 288 288 287
289 289 290 290 291 291 292 293 294 293 294 293 292 292 291 289 289 291 287 287 287 288 287 286 286 285 285 285 285 284 282 281 280 281 280 279 280 280 278 281 286 287 288 288
292 288 287 289 290 291 293 294 296 294 294 294 293 292 291 289 290 289 288 288 288 288 286 286 285 285 285 285 284 282 281 287 280 279 279 280 280 279 278 278 277 279 284 286
289 290 292 288 289 290 291 292 292 292 292 292 292 292 291 289 290 289 288 288 288 287 286 286 285 284 285 284 282 281 281 280 280 279 281 282 280 279 278 278 278 278 280 282
290 291 290 288 289 290 289 291 291 291 291 291 291 290 291 290 289 288 288 288 287 286 285 285 285 284 284 283 281 280 280 287 283 281 280 280 279 278 278 278 278 278 280 281
288 287 286 285 287 289 289 291 292 291 291 291 291 289 289 288 287 287 287 288 287 286 286 285 284 284 282 281 281 280 280 281 285 280 280 279 279 278 278 277 278 279 282 283
292 293 290 289 289 289 289 290 292 291 291 292 290 289 288 288 288 287 286 286 285 285 284 284 284 283 282 281 281 280 279 280 281 280 280 281 280 279 278 278 279 281 281 283
292 292 290 290 290 290 290 289 289 291 291 290 289 289 289 289 288 287 286 286 285 283 283 284 289 284 280 282 282 280 280 280 280 279 281 282 279 279 279 279 281 282 282 282
289 289 290 289 290 290 290 290 290 290 289 290 289 288 287 287 287 286 287 285 286 285 284 286 283 281 281 284 285 280 280 280 279 279 280 279 278 279 282 282 282 282 283 282
289 289 289 289 289 290 291 291 290 289 289 289 289 288 287 287 287 286 284 283 283 287 285 289 281 280 281 284 282 280 280 279 279 279 278 276 278 282 282 282 282 282 282 282
288 288 288 288 289 289 289 289 289 289 288 288 288 287 286 285 285 285 285 286 284 291 287 282 281 284 282 287 280 280 280 280 280 279 278 277 278 281 281 281 282 282 282 282
288 288 288 288 288 289 288 288 288 289 288 288 287 287 286 286 286 285 282 284 287 289 283 281 285 289 289 280 280 280 279 279 279 279 279 278 281 282 282 282 282 282 282 282
286 287 287 288 288 287 286 287 288 288 288 288 288 288 286 284 283 284 287 290 291 289 282 283 287 290 288 279 279 279 279 279 279 279 280 282 283 282 282 282 282 282 283 283
286 285 286 286 286 285 286 287 287 288 287 287 286 286 286 288 287 285 287 288 291 285 282 290 291 291 280 279 279 279 279 279 280 280 279 279 282 283 282 283 283 283 283 283
284 285 285 286 285 286 287 287 286 286 287 285 285 285 285 286 287 287 287 289 287 286 283 285 284 282 279 279 279 279 279 279 280 280 281 279 283 282 283 283 283 283 283 283
285 288 285 285 286 286 286 286 285 285 286 286 284 284 286 286 287 287 289 286 284 283 283 283 284 282 279 280 279 279 279 279 282 280 280 280 283 283 283 284 283 283 283 283

GFSNGP_sfc_thetae_111.txt.gz
Theta_e
285 286 285 285 285 286 286 286 284 285 286 291 293 294 295 295 295 295 295 295 295 295 295 295 294 295 295 294 295 295 294 294 293 294 295 295 295 295 295 295 295 295 295 295
282 286 286 285 287 287 287 287 286 286 287 294 295 295 295 295 294 294 294 294 294 294 294 294 294 293 294 294 294 295 294 294 294 295 295 294 294 294 295 294 294 295 295 295
280 284 285 284 287 287 287 288 287 285 291 293 293 294 295 295 295 294 294 294 294 294 293 293 293 294 293 293 294 295 294 294 294 294 294 294 294 294 294 294 294 294 294 294
281 284 280 288 292 290 288 288 290 290 291 294 295 295 296 296 296 295 295 294 293 293 293 293 293 293 293 294 293 293 293 293 294 294 293 293 294 293 293 294 294 294 294 293
281 280 284 288 289 289 287 288 292 291 292 293 294 294 295 295 297 297 296 295 294 294 293 293 293 293 293 292 293 293 292 293 293 294 293 293 293 293 293 293 293 292 292 292
282 280 280 287 291 292 291 285 291 293 292 292 293 290 292 295 296 296 295 295 293 293 292 292 291 293 293 292 293 292 292 292 293 293 293 292 292 292 292 291 291 290 289 289
280 281 284 290 292 291 285 289 292 294 293 292 293 295 294 294 294 295 294 293 292 292 292 292 292 293 292 292 292 292 292 292 291 291 291 291 290 290 289 289 288 287 288 289
280 280 280 292 291 287 291 293 294 294 293 293 294 293 293 293 292 292 292 292 291 290 290 291 292 293 291 291 291 291 291 290 289 289 289 288 288 287 287 287 287 288 287 288
285 286 292 293 293 293 294 294 295 295 295 295 293 293 293 292 291 291 291 290 291 290 290 291 292 293 291 290 290 290 290 289 289 287 287 287 287 287 287 287 287 286 287 287
288 291 291 293 295 295 295 295 296 295 296 295 294 293 292 291 290 290 290 290 290 290 290 290 291 292 291 290 290 289 288 288 287 288 286 285 286 286 287 287 286 287 286 286
287 290 291 293 294 295 295 295 295 295 296 295 294 292 292 291 290 290 290 290 291 291 290 290 290 290 290 289 289 288 288 286 286 285 285 285 285 286 287 288 288 286 286 286
288 292 292 291 294 295 294 295 296 295 295 295 295 294 293 292 291 290 290 290 290 290 290 289 289 289 289 289 289 288 287 286 287 285 285 285 285 285 286 287 288 288 289 288
293 292 292 292 293 295 295 295 294 295 296 295 294 294 293 291 291 292 290 290 290 290 290 289 289 288 289 289 288 288 287 285 286 284 284 285 284 282 282 284 286 286 288 289
294 291 290 290 292 293 294 296 298 296 296 296 295 294 293 291 292 291 290 291 291 290 289 289 288 288 288 288 287 286 287 287 284 284 285 285 283 283 283 282 281 282 285 287
291 291 294 292 291 291 292 292 292 293 294 293 294 294 293 291 291 290 290 290 290 289 288 288 288 287 288 287 285 285 285 285 284 285 286 284 283 283 283 282 282 282 283 285
291 292 291 290 292 290 291 290 290 291 292 293 293 292 293 293 291 290 290 290 288 287 288 288 288 288 287 286 284 284 286 287 285 285 284 283 283 283 282 282 282 282 282 282
289 289 288 287 289 290 290 292 292 293 293 292 293 292 291 290 289 289 289 290 291 289 289 288 287 287 286 285 284 284 284 286 286 284 283 283 284 283 282 282 282 282 282 284
294 295 292 292 292 290 289 290 291 293 292 293 292 291 289 289 289 288 289 288 288 287 288 288 286 285 284 284 284 283 284 284 283 283 284 284 284 283 283 282 282 282 283 284
294 292 292 291 292 291 290 290 290 292 291 292 291 290 290 291 289 288 288 288 287 286 286 286 289 285 283 285 284 283 284 283 283 283 284 283 283 283 283 282 282 283 283 283
290 290 291 291 290 291 290 291 291 290 291 291 291 289 289 288 288 288 289 288 289 290 287 288 286 283 283 287 286 283 284 283 282 283 284 282 282 283 283 283 282 283 284 284
289 289 289 289 289 290 291 291 291 290 290 290 290 289 288 288 288 288 287 286 286 289 287 290 284 284 285 287 284 283 283 283 283 283 282 282 282 283 282 282 282 283 283 283
288 288 288 288 288 289 290 290 290 289 289 289 289 288 287 287 287 288 289 289 287 291 290 285 285 286 286 288 283 283 283 283 283 283 282 282 282 282 282 282 282 282 283 284
288 288 288 288 288 289 289 289 289 289 289 288 288 288 288 288 288 287 285 287 290 290 286 285 287 290 290 282 283 283 282 282 282 283 283 282 283 282 282 282 282 282 283 284
287 288 288 288 288 288 287 287 288 289 288 288 288 289 288 286 286 288 289 291 291 289 285 286 289 291 288 282 282 282 282 282 282 283 283 283 283 283 283 283 283 283 284 284
287 287 287 287 287 287 287 287 287 287 287 287 287 287 288 290 288 287 289 290 292 287 286 291 291 291 282 282 282 282 282 282 283 283 283 282 283 283 283 283 283 283 283 283
285 285 286 286 287 287 287 288 287 287 286 286 286 287 286 287 289 289 289 290 287 287 286 288 289 284 282 282 282 282 282 282 283 283 283 283 283 283 283 283 283 283 283 283
285 287 285 285 286 287 287 287 286 286 287 287 285 287 287 288 288 289 289 286 286 285 286 287 287 284 282 283 281 282 282 282 283 283 283 283 283 283 284 284 284 284 284 283

GFSNGP_sfc_thetae_114.txt.gz
Theta_e
290 290 290 289 288 290 289 293 289 290 290 294 298 300 300 301 301 301 301 299 300 301 301 301 300 300 300 300 299 299 298 299 299 299 300 300 299 299 300 300 300 300 300 300
288 290 290 289 292 292 292 293 292 292 291 298 300 301 301 301 301 301 300 300 300 301 301 300 300 300 299 299 300 301 300 299 300 300 300 300 300 299 299 299 299 299 299 298
287 289 290 289 292 293 294 294 292 289 295 300 299 299 301 301 302 301 300 300 300 300 300 300 300 300 299 300 301 300 299 299 300 300 299 299 299 299 298 298 299 298 298 298
287 290 284 292 296 295 293 294 295 294 296 300 301 302 303 304 302 302 301 300 300 300 300 300 300 300 300 300 300 299 298 298 299 299 298 299 298 298 298 298 298 297 297 297
287 287 291 293 294 294 292 294 297 296 297 299 300 300 301 303 304 303 302 302 302 302 301 300 300 300 299 299 299 298 298 298 298 298 297 298 298 298 298 298 297 297 296 296
288 285 284 292 295 296 295 290 296 299 298 298 299 295 300 303 304 303 303 302 301 301 300 300 299 300 299 298 298 297 298 297 298 297 297 297 297 297 297 297 295 295 293 293
288 287 291 297 296 295 288 293 297 300 300 299 298 301 302 303 303 304 303 301 301 300 299 299 299 299 298 298 297 297 297 297 297 297 296 296 297 296 295 294 293 292 292 292
288 286 285 298 296 292 299 299 299 300 301 300 302 300 300 301 302 301 301 300 299 299 299 298 299 299 298 297 297 297 297 296 295 295 294 294 294 294 293 292 291 290 290 291
293 294 299 299 301 301 301 301 301 302 303 302 301 300 300 299 300 300 300 299 299 299 297 298 299 299 297 297 297 296 296 295 294 293 293 293 292 291 291 291 290 290 290 289
294 299 297 298 301 301 301 301 303 303 303 303 301 302 300 300 299 299 299 297 298 297 296 296 298 298 298 297 296 295 294 294 293 292 291 291 291 291 291 290 289 289 288 288
295 298 298 299 300 303 303 303 302 303 303 302 302 302 301 299 298 298 297 297 297 297 297 296 297 297 296 296 296 294 293 292 291 290 290 290 290 290 290 290 289 288 289 289
294 300 301 301 302 303 302 302 302 302 301 302 303 302 301 299 299 297 296 296 296 297 297 296 296 295 295 296 295 293 292 291 290 290 289 290 290 289 287 287 288 288 289 289
299 303 301 302 300 300 300 301 301 301 302 302 302 302 300 299 298 298 296 296 296 296 297 296 295 295 295 295 294 293 291 290 290 288 289 289 288 287 286 288 287 287 287 288
301 301 298 299 298 299 299 301 301 302 302 302 302 301 300 299 297 296 296 296 297 297 295 295 295 294 294 294 293 292 291 288 289 289 289 289 288 288 287 286 286 287 288 288
299 300 300 302 300 299 300 300 298 299 300 300 301 300 299 297 296 296 297 296 296 295 294 294 294 293 293 293 291 290 290 289 289 289 289 287 288 288 287 286 286 287 287 287
297 298 299 297 298 299 298 297 297 298 299 299 300 300 300 299 299 297 296 296 294 293 294 293 293 293 292 291 290 289 289 288 288 288 287 287 288 288 287 286 286 284 284 284
295 295 295 296 296 297 298 298 298 298 298 298 299 300 300 298 297 295 294 295 296 295 294 294 293 292 291 290 289 289 290 289 288 287 287 288 288 287 287 286 285 285 285 286
299 298 299 298 297 297 298 298 297 298 298 299 299 299 298 296 295 295 294 295 295 294 294 295 293 292 290 289 289 288 289 289 287 287 287 287 288 287 287 285 285 285 285 285
299 298 298 298 298 298 298 298 297 298 298 298 298 297 297 297 297 295 295 294 293 292 292 294 292 290 288 288 288 288 288 287 286 287 287 286 287 287 287 286 286 285 285 284
298 298 298 297 298 297 297 298 298 297 297 298 298 297 296 296 295 294 293 293 294 295 294 292 291 289 288 288 288 288 288 287 286 287 287 287 287 287 287 285 284 284 284 284
295 296 295 296 296 296 296 297 297 296 297 297 297 296 296 296 294 293 293 293 294 295 293 292 290 288 288 289 288 288 287 287 286 287 286 287 286 286 285 284 283 284 284 284
295 295 295 295 295 295 296 297 297 297 295 295 296 296 295 293 293 293 295 295 293 293 293 291 290 289 290 289 288 287 287 287 287 287 287 287 286 285 284 283 283 283 285 284
295 295 295 294 295 296 296 296 297 296 295 294 294 293 293 294 294 293 291 294 294 293 293 291 290 291 291 288 287 287 286 286 286 287 287 287 286 285 283 283 283 283 284 284
294 294 295 295 295 295 294 295 296 295 295 295 295 295 294 293 293 296 295 294 294 293 292 291 291 292 290 287 287 286 286 286 286 287 287 284 286 285 284 283 283 284 284 283
295 294 294 294 294 295 295 294 294 294 293 293 293 294 295 295 294 293 294 294 293 291 290 292 292 292 287 287 286 286 286 286 286 287 286 286 286 286 284 284 284 284 284 284
294 295 295 296 297 296 295 294 294 293 293 292 292 293 293 293 294 294 294 293 292 291 291 292 292 290 287 286 285 285 286 286 286 286 286 286 286 286 285 284 284 284 284 284
292 293 292 292 293 294 294 295 293 292 293 292 291 292 292 292 293 294 293 291 291 291 292 292 291 288 285 285 285 285 286 286 286 286 286 286 286 286 285 285 284 285 284 285

GFSNGP_sfc_thetae_117.txt.gz
Theta_e
294 293 293 292 291 291 290 293 290 292 291 295 299 302 305 305 306 305 303 302 304 304 303 301 301 300 300 301 301 302 300 300 300 300 301 301 301 300 301 301 300 300 300 300
291 295 292 291 293 294 294 295 294 295 293 299 303 304 304 305 305 304 304 303 303 303 303 302 301 301 301 301 301 301 300 300 300 300 300 300 300 299 299 299 299 299 298 298
290 293 293 291 295 295 295 297 296 291 297 301 300 301 302 305 306 304 304 303 303 303 303 302 302 302 301 301 302 301 300 300 300 300 299 299 299 299 298 298 299 298 298 298
289 293 287 294 298 298 297 297 298 296 298 301 302 303 304 306 306 305 304 304 304 303 303 302 303 302 302 302 301 300 300 300 300 299 298 298 298 298 298 298 298 298 297 297
288 290 294 295 296 295 294 295 300 298 299 300 303 303 303 306 307 306 305 305 304 304 303 303 302 302 301 300 300 300 299 298 298 298 297 298 298 298 298 297 297 296 296 295
291 287 286 295 297 299 298 291 301 300 300 300 301 296 300 305 306 306 306 305 304 304 303 302 302 302 301 300 299 298 298 298 298 298 297 297 298 297 297 296 295 295 294 294
290 289 294 300 298 299 289 294 299 301 301 301 299 302 306 306 306 307 306 304 304 303 302 302 302 301 300 300 298 298 298 298 297 298 297 297 297 296 295 294 293 293 292 293
291 289 287 301 297 293 301 302 302 302 303 302 303 303 304 305 305 305 304 303 303 302 302 301 301 301 299 299 299 299 298 297 296 296 295 295 295 294 293 292 291 291 291 291
295 296 302 302 302 303 304 304 303 303 304 304 303 303 303 304 305 305 304 303 303 302 301 301 301 301 299 299 299 297 296 296 295 295 294 293 292 291 291 291 291 290 290 289
296 300 300 302 303 304 304 304 306 306 306 305 303 304 303 303 303 304 304 302 302 301 300 299 300 300 300 299 298 297 295 295 294 293 291 291 291 291 291 290 289 289 289 289
297 300 301 302 303 304 304 305 305 306 306 306 305 304 304 303 303 303 303 303 302 301 299 299 299 299 299 298 297 295 295 294 293 292 290 290 291 290 290 290 289 287 288 289
296 302 302 303 305 306 303 304 305 305 304 305 305 305 305 304 303 303 302 302 301 300 300 299 299 298 297 297 296 295 293 292 292 290 290 290 290 289 289 288 288 288 289 289
301 304 304 305 305 304 303 304 304 304 304 304 305 305 305 304 303 303 302 301 300 300 300 299 298 297 297 297 296 294 293 292 290 290 289 289 289 288 287 289 289 288 288 288
302 302 300 301 301 302 302 303 304 303 303 303 304 305 305 304 303 301 301 300 301 300 299 298 297 296 296 296 295 294 293 292 290 290 290 289 288 288 288 287 286 288 289 288
300 302 301 303 303 303 303 302 301 300 302 302 303 303 303 302 301 300 301 301 300 299 298 297 296 296 296 295 294 292 291 289 290 290 290 288 288 288 288 287 287 287 287 288
299 300 300 300 300 301 302 301 299 300 301 301 302 302 303 303 302 301 301 300 298 296 297 296 295 296 295 294 293 291 291 291 290 290 288 287 288 288 287 287 287 286 286 285
296 296 297 298 298 299 300 301 301 300 301 301 301 302 303 302 301 300 299 299 299 298 297 296 295 295 294 293 291 291 290 289 289 289 288 288 288 287 287 287 286 286 286 286
300 300 300 300 300 300 300 301 301 302 300 301 302 302 301 301 300 299 298 298 298 297 296 296 295 294 293 292 291 291 291 289 288 288 288 288 288 287 287 286 286 286 286 286
301 300 300 300 300 300 300 300 300 301 301 301 301 300 301 302 301 300 299 297 296 294 294 296 295 293 291 291 290 290 290 289 287 288 288 287 286 287 287 287 286 286 285 284
299 301 301 301 301 300 299 300 301 301 300 300 300 300 300 300 301 299 298 296 296 296 296 295 293 291 290 290 291 289 289 288 287 288 288 287 287 287 287 285 285 285 285 284
300 300 300 299 299 299 299 300 299 299 299 299 299 299 300 300 300 298 296 294 297 297 296 294 292 290 289 290 289 290 289 288 288 288 287 287 286 286 286 285 285 285 285 284
299 298 298 298 298 298 299 299 299 299 299 298 299 300 299 298 297 297 297 296 297 296 294 292 291 290 290 290 290 289 289 288 288 288 288 287 287 286 285 284 283 285 285 284
297 297 297 297 297 298 298 299 299 299 298 298 298 299 299 298 297 295 294 297 296 295 294 292 292 292 292 289 289 289 288 288 287 288 288 287 286 286 284 284 284 283 283 284
297 297 297 298 298 297 296 298 299 299 298 298 298 299 298 296 296 299 299 296 295 295 293 292 292 293 291 289 289 288 288 288 288 288 287 286 287 286 285 284 283 284 284 284
297 297 297 296 296 297 297 297 297 297 296 296 296 297 297 298 298 296 296 295 295 294 292 293 293 292 289 289 288 288 288 288 288 287 287 286 286 286 285 285 284 284 284 284
297 296 297 298 299 299 298 298 297 297 296 295 295 296 297 298 297 296 296 294 294 293 292 292 292 290 289 288 288 288 288 287 287 287 287 286 286 286 286 285 284 284 284 284
297 297 297 297 298 298 298 298 296 295 296 295 294 295 295 296 296 295 294 293 292 292 292 292 291 289 288 288 287 287 286 287 288 287 286 286 286 286 286 285 285 285 285 285

GFSNGP_sfc_thetae_120.txt.gz
Theta_e
293 293 292 291 291 291 288 288 284 289 289 290 296 299 301 302 302 301 300 301 301 298 298 299 298 297 297 297 298 297 297 296 295 296 296 297 296 296 296 295 295 295 295 295
289 294 293 290 292 292 291 290 290 292 291 296 299 301 301 301 302 301 300 300 300 299 298 296 295 295 296 296 296 296 296 295 296 296 296 295 295 295 295 294 293 293 293 293
287 292 291 288 292 293 293 294 293 289 293 297 297 299 300 301 302 302 301 300 300 299 298 297 296 296 295 295 296 295 295 295 295 295 295 294 294 294 293 292 292 291 292 292
285 289 283 292 296 296 295 296 296 295 296 298 298 299 300 304 302 301 301 301 299 298 297 297 297 296 296 296 295 295 294 294 294 294 293 293 293 292 292 292 291 291 291 291
283 285 291 293 295 294 292 292 297 295 296 298 300 299 297 303 305 302 301 301 299 298 297 296 296 296 296 295 295 294 293 293 293 293 293 293 292 291 291 291 290 289 289 289
287 282 282 292 296 298 296 286 297 298 296 297 298 290 294 301 303 303 302 301 299 298 298 296 296 296 295 294 294 293 293 292 293 293 293 292 291 291 290 289 289 289 288 287
284 284 291 297 296 297 285 290 296 297 298 298 295 296 300 303 302 303 302 300 300 298 296 296 296 296 294 294 292 294 294 294 293 293 292 291 290 289 287 287 287 286 287 287
286 284 283 297 294 290 296 296 298 298 299 299 299 300 301 301 301 301 300 300 299 297 296 296 296 296 294 293 294 294 293 293 291 290 291 292 288 287 286 286 285 285 285 285
291 291 298 298 298 299 302 298 298 299 299 300 300 299 300 300 301 301 300 299 299 297 296 295 296 295 294 293 294 293 292 290 290 290 288 287 285 285 285 286 285 285 284 284
293 296 298 299 299 300 300 301 302 301 302 301 299 300 299 300 300 300 300 299 299 297 296 294 295 296 295 294 294 293 290 289 289 287 286 285 287 287 285 285 284 285 284 284
293 296 298 300 300 300 301 301 301 303 303 302 301 300 300 299 300 301 301 300 299 297 296 295 295 296 296 295 293 291 289 289 288 286 285 284 285 285 285 284 285 283 283 284
291 298 297 298 301 302 301 301 302 301 301 302 303 302 301 300 300 300 300 299 298 297 296 296 295 295 295 295 293 291 289 288 287 285 284 285 284 283 289 289 289 289 289 287
297 300 300 300 302 303 301 302 302 302 302 301 302 302 301 300 300 302 299 299 298 297 297 296 295 294 294 294 293 291 288 287 285 286 284 283 283 281 281 286 290 290 289 289
300 297 294 298 297 300 301 302 304 302 301 301 300 301 301 300 301 299 299 299 298 297 296 295 295 294 295 294 292 290 289 293 284 284 284 283 282 282 282 282 281 282 289 289
299 300 297 297 298 298 299 299 298 298 298 298 299 299 300 299 299 299 298 298 298 296 295 295 294 293 295 294 291 289 287 286 285 284 284 285 282 282 282 282 282 282 282 286
296 297 296 296 297 296 298 297 297 297 297 297 298 299 300 300 299 298 298 297 295 295 295 295 294 294 294 293 290 288 287 290 288 285 283 282 282 282 282 281 281 281 281 282
295 294 295 295 295 296 296 298 299 298 297 297 297 299 299 299 298 297 297 297 297 295 295 294 293 294 293 292 289 287 286 286 289 284 283 282 283 282 282 282 281 281 281 284
299 298 298 297 296 296 295 296 297 297 296 298 298 299 299 298 297 296 296 296 295 294 294 294 294 293 292 290 289 287 285 285 284 284 284 284 283 283 282 282 281 281 281 284
298 297 297 297 296 296 295 295 296 297 297 298 297 296 298 299 298 297 296 295 294 292 293 294 296 293 290 290 289 288 286 285 284 284 284 286 282 282 282 282 282 281 281 282
298 298 298 296 296 296 295 296 297 297 297 297 296 295 295 296 298 297 295 294 294 294 294 294 292 290 289 291 291 286 286 284 283 283 284 282 282 282 282 283 281 282 281 282
296 296 296 295 295 296 296 296 296 296 296 296 295 295 295 296 297 296 293 292 292 295 294 294 290 289 288 290 287 285 284 283 283 283 283 282 281 281 282 281 282 282 282 283
295 295 296 296 295 295 296 296 296 296 295 295 296 296 295 294 294 294 295 293 294 297 293 291 289 290 289 291 285 284 283 283 283 283 283 282 281 282 281 281 281 282 282 282
295 295 295 295 295 295 295 295 295 295 295 294 295 295 294 294 294 293 291 294 294 294 292 290 291 293 293 285 285 284 283 282 283 283 283 282 282 282 282 281 281 282 283 283
294 294 294 295 295 294 292 293 295 295 295 295 295 296 294 292 291 294 295 296 296 294 290 290 292 294 290 285 284 283 282 282 282 283 283 286 283 283 282 282 281 283 284 283
293 293 293 293 293 292 293 294 294 293 293 292 293 294 294 294 293 293 293 293 295 291 289 295 295 293 285 284 283 282 282 282 283 282 282 282 284 284 283 282 282 283 283 283
293 293 293 294 294 294 294 294 292 292 292 291 291 292 293 294 294 293 292 293 291 291 289 291 290 286 285 284 283 282 282 283 283 283 283 284 285 284 284 283 282 283 284 284
294 296 294 294 295 295 295 294 292 291 292 292 291 292 292 293 293 292 293 291 289 289 289 289 287 286 284 284 283 282 282 282 284 283 284 285 285 284 283 283 282 282 284 284

GFSNGP_sfc_thetae_123.txt.gz
Theta_e
290 291 289 288 289 289 285 284 281 285 286 291 295 297 297 297 298 299 299 298 298 297 297 297 294 294 294 294 294 295 295 294 293 294 294 295 294 294 294 294 293 294 294 295
286 290 289 287 289 289 288 287 285 286 287 293 296 298 297 297 298 297 297 297 296 295 294 293 292 292 293 293 294 294 293 293 294 293 293 293 293 292 292 291 291 292 291 293
282 288 288 285 288 289 290 290 288 285 290 295 297 299 299 299 300 298 297 297 296 295 294 293 293 293 292 293 293 293 293 293 293 293 292 292 292 291 290 289 289 289 290 292
281 285 279 290 293 294 292 293 293 293 295 296 297 299 300 300 300 299 299 298 297 296 295 294 294 294 293 293 293 292 292 292 292 291 291 291 290 289 289 289 288 288 288 290
280 281 287 289 292 291 290 290 295 293 295 296 297 296 296 302 302 301 299 298 296 296 295 294 294 293 293 292 292 292 291 290 291 291 291 291 289 288 288 287 287 286 287 287
282 279 280 290 294 296 293 284 294 295 294 295 296 289 292 299 302 301 300 299 297 295 294 293 293 293 292 291 291 290 290 290 291 292 291 290 289 288 287 286 287 287 286 286
280 280 287 295 294 295 283 287 294 296 295 296 295 296 296 299 301 302 301 298 297 296 295 293 293 293 292 291 290 291 292 292 291 291 290 289 287 286 285 285 285 284 285 284
282 280 281 294 292 289 292 293 295 295 295 297 297 298 299 300 300 300 299 298 297 295 294 293 293 293 291 290 291 292 292 291 289 289 291 289 286 284 284 284 283 283 283 283
286 287 294 295 293 295 297 296 295 296 297 299 298 297 299 298 299 300 299 298 298 296 294 293 293 294 291 291 292 291 290 288 288 287 286 285 284 283 284 283 283 283 283 282
289 293 294 295 295 296 299 297 298 298 298 299 298 298 298 298 298 299 299 298 297 296 294 292 293 293 293 292 292 291 288 287 286 285 283 284 285 285 283 283 282 283 283 282
289 292 294 296 296 297 298 299 299 300 300 299 298 298 298 298 298 300 299 298 298 297 295 294 293 293 294 293 293 290 288 287 285 285 283 283 284 283 284 282 283 282 282 283
290 294 295 296 300 299 298 298 299 300 299 300 299 298 298 298 299 299 298 298 297 297 295 294 294 293 294 294 293 290 288 287 285 283 282 283 283 282 290 289 291 290 290 287
294 296 298 298 300 300 299 299 300 299 300 299 300 300 299 297 298 301 299 298 297 296 296 295 294 293 294 293 292 291 289 287 287 285 283 282 282 281 280 285 290 290 290 289
296 296 293 296 297 299 300 301 303 301 302 301 301 299 300 299 298 299 298 299 298 297 295 295 293 293 294 293 292 290 289 292 285 283 283 282 281 281 281 281 280 281 289 289
297 296 295 295 296 298 298 299 298 298 298 298 298 299 299 298 297 298 299 299 297 296 295 294 293 292 294 293 291 289 290 287 285 284 283 284 282 282 282 281 280 281 281 285
295 295 294 295 295 294 295 295 296 296 295 295 295 296 298 299 298 297 297 296 295 294 294 294 293 293 293 292 290 289 288 290 287 284 284 282 282 282 281 281 280 280 280 280
292 291 291 291 293 293 293 297 297 297 296 295 295 297 297 297 296 295 296 297 297 296 295 294 293 293 293 291 290 288 288 289 289 284 282 282 282 282 281 281 281 280 280 283
296 297 295 295 295 295 292 294 296 296 295 296 296 296 296 296 296 296 295 294 293 292 293 293 292 293 292 290 289 288 287 287 286 284 283 283 283 282 282 281 281 280 280 282
295 296 297 296 296 295 292 293 293 294 295 296 295 296 297 298 297 296 294 293 293 291 290 292 296 292 289 290 289 288 287 286 285 284 284 286 284 282 281 281 281 280 280 281
297 297 295 294 294 293 292 293 293 293 295 295 296 294 295 295 296 294 294 293 294 294 292 293 292 290 289 292 291 287 286 285 284 283 284 282 281 281 281 283 281 281 280 281
296 296 296 295 293 293 293 293 294 294 294 295 295 294 294 295 296 295 292 291 291 294 292 294 290 289 290 291 289 286 285 284 284 283 284 281 282 282 281 280 281 281 281 281
292 292 292 292 292 292 293 294 294 295 295 294 294 293 292 292 294 293 294 293 292 296 293 290 289 291 291 293 287 286 284 283 283 282 281 281 280 280 279 279 279 281 281 281
291 292 292 292 292 293 293 294 294 294 294 293 293 293 292 293 294 291 289 291 294 294 291 289 291 294 294 286 286 284 282 282 282 282 281 281 281 281 279 279 280 281 280 281
291 292 292 293 293 292 291 292 293 294 293 293 294 293 292 290 289 291 294 296 295 293 289 290 293 295 290 285 284 283 282 282 282 282 282 285 282 281 280 281 280 282 282 283
291 291 291 291 291 290 292 293 292 292 292 292 291 291 292 293 292 291 293 293 295 290 289 295 296 293 285 284 283 282 282 282 282 282 282 281 282 281 281 281 282 281 282 283
290 291 291 291 291 292 292 293 291 290 291 290 290 291 291 292 292 292 292 292 289 291 290 292 292 286 285 283 283 282 282 283 284 282 282 282 283 283 283 283 282 282 282 284
291 294 292 291 292 293 292 292 291 290 291 291 289 290 291 291 291 291 292 288 289 289 290 290 288 285 284 284 282 282 282 282 284 282 282 283 284 284 284 282 282 282 282 284

GFSNGP_sfc_thetae_126.txt.gz
Theta_e
288 290 290 288 288 287 284 283 281 284 286 289 295 296 296 297 297 296 299 298 297 299 298 297 296 295 294 293 293 293 294 293 292 293 294 293 293 293 293 293 292 294 294 294
284 288 288 286 288 288 287 286 284 284 285 290 295 297 295 296 297 297 295 297 296 295 294 293 291 291 292 292 292 292 293 292 293 293 292 291 291 291 291 290 291 293 293 293
281 286 287 284 287 288 288 288 288 283 287 294 295 297 297 296 297 297 296 295 294 293 293 292 292 292 291 291 292 291 291 291 291 292 291 290 290 290 289 288 289 290 291 291
281 284 279 287 291 291 290 291 289 289 291 296 298 300 299 300 298 297 296 295 294 294 293 292 292 292 292 291 291 291 291 291 291 291 290 290 289 288 288 287 287 287 289 290
281 281 286 288 291 290 289 289 293 292 294 296 297 296 296 301 302 300 298 297 296 295 294 292 293 292 292 291 291 290 289 289 289 290 289 289 288 287 286 286 286 286 288 288
281 279 280 288 292 295 292 284 293 295 294 294 294 289 294 300 302 300 300 298 296 295 293 293 293 293 292 291 290 289 289 289 290 290 289 288 287 287 286 285 285 285 285 284
281 279 285 292 294 293 283 287 293 295 295 295 294 297 295 301 301 301 300 298 297 295 294 294 293 293 292 290 290 290 290 290 291 290 289 288 286 285 284 284 284 283 283 283
280 279 281 294 291 289 291 292 294 294 295 297 298 296 297 300 300 299 298 297 296 295 294 292 293 293 291 290 290 291 291 291 289 288 290 288 284 283 283 283 282 281 282 283
285 286 292 295 292 294 295 294 294 294 295 299 297 296 298 297 299 300 298 298 297 295 293 292 293 294 291 290 291 291 290 288 287 287 286 285 283 282 283 282 282 281 282 282
287 291 292 294 293 294 296 295 296 296 297 298 297 297 297 296 298 299 298 297 297 295 294 292 293 293 293 291 291 291 288 286 285 284 283 283 284 284 283 282 281 282 282 282
287 290 292 295 295 295 296 297 296 297 298 299 298 297 297 296 297 299 298 298 297 295 294 294 293 292 292 292 291 290 288 287 285 284 282 282 283 283 283 281 283 282 281 282
288 295 294 294 296 296 297 298 297 297 297 298 299 298 297 297 298 298 297 297 296 296 295 294 293 293 292 293 292 290 288 286 285 284 282 283 282 282 290 290 291 291 290 286
294 295 297 295 298 298 297 297 298 298 299 298 298 299 298 297 297 300 298 296 296 296 296 294 293 293 293 293 292 291 289 287 287 285 283 282 282 282 281 287 292 292 291 291
294 295 293 295 296 297 299 299 302 299 299 300 300 298 298 297 297 298 297 298 298 296 295 294 294 293 293 293 292 291 289 292 286 284 284 283 282 282 282 283 281 282 289 288
294 296 297 297 297 297 298 297 297 297 297 297 298 298 298 297 296 298 299 298 297 296 295 294 294 293 293 293 291 289 289 288 285 285 284 284 282 282 282 282 281 281 282 286
295 294 292 295 296 297 296 296 297 298 296 298 297 297 298 299 298 297 296 296 295 294 294 295 294 293 293 292 290 289 289 290 287 284 285 282 282 282 281 281 280 281 280 281
295 289 291 292 293 292 295 297 298 299 295 296 296 297 295 296 295 295 295 296 298 297 295 295 294 292 293 292 290 289 288 289 289 285 284 283 283 283 282 281 281 280 280 282
299 299 298 298 296 296 293 294 295 295 295 296 295 294 294 294 295 295 294 293 293 292 293 294 292 293 292 290 289 288 288 288 286 285 284 283 283 283 282 281 281 280 280 282
293 296 294 294 296 295 293 293 293 295 295 294 294 293 295 297 297 295 293 293 292 290 290 291 296 293 290 290 289 288 288 287 286 285 284 286 285 283 281 281 281 281 280 281
294 295 296 294 293 293 292 292 293 292 294 294 294 294 294 295 295 293 293 293 294 294 291 292 293 290 289 292 292 287 287 286 285 284 284 284 282 281 282 283 281 281 281 281
295 294 292 293 292 292 294 293 292 292 292 293 293 294 295 294 295 293 291 290 290 293 292 295 290 289 290 292 289 287 287 286 285 284 284 282 283 282 282 281 281 281 281 280
295 294 292 292 292 292 291 292 293 293 292 292 293 293 292 292 292 292 293 293 291 296 293 291 289 291 291 292 287 287 286 285 284 284 283 282 281 281 280 280 279 280 280 279
292 293 293 292 293 292 290 291 291 292 293 293 292 291 292 292 293 291 288 290 293 294 291 289 292 295 295 286 287 286 285 284 283 283 282 281 281 280 279 279 279 280 279 278
289 289 290 290 290 291 290 290 292 293 293 292 293 292 292 289 288 290 293 295 295 293 289 290 294 296 290 287 286 285 284 283 282 281 282 284 281 281 280 280 280 280 280 282
289 289 290 290 290 289 290 291 292 291 292 291 290 290 291 291 290 290 292 292 294 290 289 296 297 294 286 286 286 284 283 282 282 282 282 282 282 281 280 280 280 281 281 281
289 290 290 291 291 291 291 293 291 291 291 289 288 289 289 291 292 291 292 291 289 291 291 293 292 287 286 285 284 283 282 283 284 282 282 282 282 281 281 281 282 283 282 281
290 292 290 290 291 292 292 292 291 290 291 290 287 288 290 290 291 290 290 288 289 289 291 291 289 286 285 284 283 282 282 282 283 282 281 282 282 283 283 283 282 282 282 281

GFSNGP_sfc_thetae_129.txt.gz
Theta_e
286 288 288 288 286 285 283 283 282 282 284 287 294 295 296 297 296 299 301 301 303 302 302 299 295 294 295 294 293 293 293 292 291 291 292 292 292 292 294 295 294 295 295 295
283 287 288 286 287 287 285 284 284 283 284 290 293 295 294 295 296 295 296 298 297 298 296 298 294 291 291 291 291 291 291 290 291 291 290 290 289 290 291 291 292 293 293 294
280 284 285 283 286 287 286 286 287 283 287 290 292 296 296 296 297 297 296 296 295 294 294 292 291 291 290 290 290 290 290 290 290 290 289 289 289 289 289 288 290 290 290 291
280 282 278 286 290 290 289 289 288 287 289 293 294 297 299 300 298 298 297 296 294 293 292 292 291 291 290 290 290 290 289 289 289 289 289 288 288 287 287 287 288 288 288 289
280 279 284 287 290 289 288 289 291 290 290 292 296 297 294 300 300 300 298 297 296 294 293 291 291 291 291 290 290 289 289 288 289 289 288 288 287 286 286 286 285 287 288 287
280 279 280 287 290 293 291 284 292 293 292 294 295 290 294 299 301 300 298 297 294 293 292 292 291 291 291 289 289 289 288 289 289 289 288 287 286 285 285 284 285 287 285 285
281 280 284 291 293 292 284 287 291 293 293 294 295 296 295 301 301 301 298 296 295 294 293 293 291 292 290 289 289 290 289 289 289 289 288 287 285 284 283 283 283 282 283 283
280 279 282 293 291 288 292 291 293 293 294 296 296 295 295 300 301 299 297 296 295 294 293 292 292 292 290 289 290 289 289 289 289 288 290 287 284 282 282 282 281 281 281 281
286 286 292 294 291 294 294 294 293 294 295 297 295 295 296 298 299 299 298 297 296 295 293 291 292 293 291 291 289 289 289 288 288 287 286 284 283 281 282 281 281 281 282 281
287 290 290 293 293 292 294 294 295 295 295 297 296 296 296 296 298 298 298 297 296 295 293 291 292 293 293 289 290 290 288 287 286 286 284 283 283 283 282 281 281 282 282 282
285 289 291 293 294 295 295 295 295 295 296 297 297 296 296 295 297 299 298 298 296 295 293 293 292 292 291 291 291 290 288 287 286 285 284 282 282 282 283 281 283 282 282 282
286 293 293 294 296 295 295 296 296 296 296 297 298 297 297 296 297 298 297 297 295 295 294 294 293 292 291 292 292 290 288 287 285 285 283 283 282 282 289 288 291 291 290 285
293 295 296 294 296 296 297 296 297 296 297 296 297 297 297 296 296 299 297 296 296 295 295 294 293 292 292 292 292 291 289 287 286 285 283 282 282 282 281 287 292 292 292 291
293 295 292 294 296 295 296 297 301 297 296 297 297 297 297 296 297 297 296 297 297 296 295 294 293 293 293 293 292 291 290 292 287 284 284 283 282 282 284 284 284 283 291 289
293 295 295 296 295 296 295 295 296 296 296 296 297 297 296 295 295 297 298 296 296 295 294 294 294 294 293 293 292 291 289 289 286 284 284 285 283 282 283 283 283 283 283 288
293 293 291 294 294 295 295 295 296 297 295 295 296 296 297 297 297 296 296 295 294 294 294 294 294 295 294 293 292 290 290 292 288 284 284 284 283 283 283 283 282 282 282 282
291 288 289 290 293 294 295 297 298 298 298 295 297 297 296 296 295 295 295 296 297 297 296 295 295 295 294 293 292 290 290 290 289 284 285 284 283 283 283 283 282 282 282 283
297 296 296 297 295 293 293 295 297 296 296 297 296 295 295 294 296 295 295 294 293 293 294 295 294 293 293 292 291 290 289 289 286 285 285 284 284 284 283 283 282 281 281 283
295 296 294 296 296 296 296 295 295 296 294 294 293 293 295 295 295 295 293 293 292 291 291 292 296 294 292 292 292 290 289 287 285 285 285 286 285 284 283 283 282 282 281 282
295 294 294 294 295 294 293 293 293 293 293 293 293 292 292 293 293 293 292 293 294 294 291 292 294 290 290 293 293 289 288 286 285 284 285 285 284 283 283 284 282 282 281 281
297 295 292 291 291 292 293 292 292 292 292 293 293 292 293 292 293 292 291 291 291 292 291 295 290 288 290 292 290 288 287 285 285 285 286 284 284 283 283 283 282 282 281 281
297 291 291 290 291 290 290 291 291 291 291 291 292 292 291 291 291 291 292 292 290 295 293 290 289 291 291 293 288 287 286 286 285 285 285 284 284 283 282 282 281 281 281 280
294 294 291 291 291 292 290 290 290 291 291 291 291 291 291 291 292 290 289 289 292 294 290 288 292 295 295 287 287 286 286 286 286 285 285 284 284 283 282 280 280 280 279 278
289 290 291 291 290 289 289 288 289 290 291 291 291 291 291 289 288 290 292 294 295 292 289 291 295 296 290 287 286 286 286 286 285 284 284 285 283 281 280 280 280 280 280 281
288 288 288 289 289 290 289 289 289 289 290 289 289 290 290 290 290 289 292 292 294 290 290 297 297 293 286 286 286 286 285 284 283 283 283 282 282 282 281 281 280 280 280 281
287 288 289 290 290 289 290 291 289 289 290 288 287 289 290 290 292 291 291 291 290 292 292 294 292 286 286 286 286 285 283 284 284 283 283 282 282 281 280 280 280 282 282 282
289 291 289 288 289 290 291 291 290 289 290 290 287 288 289 290 290 289 290 289 289 290 292 291 287 286 284 284 283 283 283 283 284 283 282 282 281 281 281 282 282 282 282 281